Observation data for Persimmon Gap on 02/14/2020      Previous  Date  Next       Current Mesonet Observations  Soil Data  Daily Summary Page  Observations in Plain Language
KPG1 140600Z 01016KT 10/M03 A3019 RMK A01 T00951031  RH  041%=      5-min Rain = 0
KPG1 140601Z 01016KT 10/M03 A3019 RMK A01 T00951031  RH  041%=      5-min Rain = 0
KPG1 140602Z 01016KT 10/M03 A3019 RMK A01 T00951031  RH  041%=      5-min Rain = 0
KPG1 140603Z 01016KT 10/M03 A3019 RMK A01 T00951032  RH  041%=      5-min Rain = 0
KPG1 140604Z 01017KT 10/M03 A3019 RMK A01 T00951032  RH  041%=      5-min Rain = 0
KPG1 140605Z 02017KT 10/M03 A3019 RMK A01 T00961031  RH  041%=      5-min Rain = 0
KPG1 140606Z 01016KT 10/M03 A3019 RMK A01 T00961032  RH  041%=      5-min Rain = 0
KPG1 140607Z 00016KT 10/M03 A3019 RMK A01 T00951031  RH  041%=      5-min Rain = 0
KPG1 140608Z 02015KT 10/M03 A3019 RMK A01 T00951031  RH  041%=      5-min Rain = 0
KPG1 140609Z 01016KT 10/M03 A3019 RMK A01 T00951032  RH  041%=      5-min Rain = 0
KPG1 140610Z 01016KT 10/M03 A3019 RMK A01 T00951032  RH  041%=      5-min Rain = 0
KPG1 140611Z 01015KT 10/M03 A3019 RMK A01 T00951032  RH  041%=      5-min Rain = 0
KPG1 140612Z 01017KT 10/M03 A3019 RMK A01 T00951032  RH  041%=      5-min Rain = 0
KPG1 140613Z 01015KT 10/M03 A3019 RMK A01 T00961031  RH  041%=      5-min Rain = 0
KPG1 140614Z 01016KT 10/M03 A3019 RMK A01 T00951032  RH  041%=      5-min Rain = 0
KPG1 140615Z 01014KT 10/M03 A3019 RMK A01 T00951032  RH  041%=      5-min Rain = 0
KPG1 140616Z 01014G19KT 09/M03 A3019 RMK A01 T00941032  RH  041%=      5-min Rain = 0
KPG1 140617Z 01015KT 10/M03 A3019 RMK A01 T00951032  RH  041%=      5-min Rain = 0
KPG1 140618Z 02015KT 10/M03 A3019 RMK A01 T00951031  RH  041%=      5-min Rain = 0
KPG1 140619Z 01015KT 10/M03 A3019 RMK A01 T00951031  RH  041%=      5-min Rain = 0
KPG1 140620Z 02016KT 10/M03 A3019 RMK A01 T00951031  RH  041%=      5-min Rain = 0
KPG1 140621Z 01016KT 09/M03 A3019 RMK A01 T00941031  RH  041%=      5-min Rain = 0
KPG1 140622Z 01016KT 10/M03 A3019 RMK A01 T00951031  RH  041%=      5-min Rain = 0
KPG1 140623Z 02016KT 09/M03 A3019 RMK A01 T00941032  RH  041%=      5-min Rain = 0
KPG1 140624Z 02014KT 10/M03 A3019 RMK A01 T00951031  RH  041%=      5-min Rain = 0
KPG1 140625Z 02014KT 09/M03 A3019 RMK A01 T00941032  RH  041%=      5-min Rain = 0
KPG1 140626Z 01015KT 10/M03 A3019 RMK A01 T00951031  RH  041%=      5-min Rain = 0
KPG1 140627Z 01015KT 09/M03 A3019 RMK A01 T00941032  RH  041%=      5-min Rain = 0
KPG1 140628Z 01016KT 09/M03 A3019 RMK A01 T00941031  RH  041%=      5-min Rain = 0
KPG1 140629Z 01015KT 09/M03 A3019 RMK A01 T00941032  RH  041%=      5-min Rain = 0
KPG1 140630Z 01016KT 09/M03 A3019 RMK A01 T00941032  RH  041%=      5-min Rain = 0
KPG1 140631Z 02016KT 09/M03 A3019 RMK A01 T00941032  RH  041%=      5-min Rain = 0
KPG1 140632Z 02016KT 09/M03 A3019 RMK A01 T00941032  RH  041%=      5-min Rain = 0
KPG1 140633Z 02014KT 09/M03 A3019 RMK A01 T00941032  RH  041%=      5-min Rain = 0
KPG1 140634Z 01014KT 09/M03 A3019 RMK A01 T00941032  RH  041%=      5-min Rain = 0
KPG1 140635Z 01014KT 09/M03 A3019 RMK A01 T00941032  RH  041%=      5-min Rain = 0
KPG1 140636Z 02014KT 09/M03 A3019 RMK A01 T00931032  RH  041%=      5-min Rain = 0
KPG1 140637Z 02015KT 09/M03 A3019 RMK A01 T00931032  RH  041%=      5-min Rain = 0
KPG1 140638Z 01015KT 09/M03 A3019 RMK A01 T00931032  RH  041%=      5-min Rain = 0
KPG1 140639Z 01016KT 09/M03 A3019 RMK A01 T00941032  RH  041%=      5-min Rain = 0
KPG1 140640Z 01013KT 09/M03 A3019 RMK A01 T00941032  RH  041%=      5-min Rain = 0
KPG1 140641Z 01014KT 09/M03 A3019 RMK A01 T00941032  RH  041%=      5-min Rain = 0
KPG1 140642Z 01015KT 09/M03 A3018 RMK A01 T00941031  RH  041%=      5-min Rain = 0
KPG1 140643Z 01015KT 09/M03 A3018 RMK A01 T00931032  RH  041%=      5-min Rain = 0
KPG1 140644Z 02015KT 09/M03 A3019 RMK A01 T00941032  RH  041%=      5-min Rain = 0
KPG1 140645Z 01015KT 09/M03 A3018 RMK A01 T00941032  RH  041%=      5-min Rain = 0
KPG1 140646Z 01014KT 09/M03 A3018 RMK A01 T00931032  RH  041%=      5-min Rain = 0
KPG1 140647Z 01016KT 09/M03 A3018 RMK A01 T00931032  RH  041%=      5-min Rain = 0
KPG1 140648Z 01015KT 09/M03 A3018 RMK A01 T00941032  RH  041%=      5-min Rain = 0
KPG1 140649Z 02014KT 09/M03 A3018 RMK A01 T00941032  RH  041%=      5-min Rain = 0
KPG1 140650Z 01014KT 09/M03 A3018 RMK A01 T00941032  RH  041%=      5-min Rain = 0
KPG1 140651Z 01016KT 09/M03 A3018 RMK A01 T00941032  RH  041%=      5-min Rain = 0
KPG1 140652Z 01015KT 09/M03 A3018 RMK A01 T00941032  RH  041%=      5-min Rain = 0
KPG1 140653Z 01014KT 09/M03 A3018 RMK A01 T00941032  RH  041%=      5-min Rain = 0
KPG1 140654Z 02016KT 09/M03 A3018 RMK A01 T00931032  RH  041%=      5-min Rain = 0
KPG1 140655Z 02015KT 09/M03 A3018 RMK A01 T00941032  RH  041%=      5-min Rain = 0
KPG1 140656Z 01015KT 09/M03 A3018 RMK A01 T00941032  RH  041%=      5-min Rain = 0
KPG1 140657Z 01015KT 09/M03 A3018 RMK A01 T00941032  RH  041%=      5-min Rain = 0
KPG1 140658Z 01015KT 09/M03 A3018 RMK A01 T00941032  RH  041%=      5-min Rain = 0
KPG1 140659Z 02014KT 09/M03 A3018 RMK A01 T00931032  RH  041%=      5-min Rain = 0
KPG1 140700Z 01015G20KT 09/M03 A3018 RMK A01 T00941032  RH  041%=      5-min Rain = 0
KPG1 140701Z 01015KT 09/M03 A3018 RMK A01 T00931032  RH  041%=      5-min Rain = 0
KPG1 140702Z 01015KT 09/M03 A3018 RMK A01 T00931032  RH  041%=      5-min Rain = 0
KPG1 140703Z 01016KT 09/M03 A3018 RMK A01 T00931032  RH  041%=      5-min Rain = 0
KPG1 140704Z 01015KT 09/M03 A3018 RMK A01 T00941032  RH  041%=      5-min Rain = 0
KPG1 140705Z 01014KT 09/M03 A3018 RMK A01 T00941032  RH  041%=      5-min Rain = 0
KPG1 140706Z 01016KT 09/M03 A3018 RMK A01 T00931032  RH  041%=      5-min Rain = 0
KPG1 140707Z 01016KT 09/M03 A3018 RMK A01 T00931032  RH  041%=      5-min Rain = 0
KPG1 140708Z 01015KT 09/M03 A3018 RMK A01 T00931032  RH  041%=      5-min Rain = 0
KPG1 140709Z 01016KT 09/M03 A3018 RMK A01 T00931032  RH  041%=      5-min Rain = 0
KPG1 140710Z 00016KT 09/M03 A3018 RMK A01 T00941032  RH  041%=      5-min Rain = 0
KPG1 140711Z 01016KT 09/M03 A3018 RMK A01 T00941032  RH  041%=      5-min Rain = 0
KPG1 140712Z 01015KT 09/M03 A3018 RMK A01 T00931032  RH  041%=      5-min Rain = 0
KPG1 140713Z 00016KT 09/M03 A3018 RMK A01 T00931032  RH  041%=      5-min Rain = 0
KPG1 140714Z 01014KT 09/M03 A3018 RMK A01 T00931032  RH  041%=      5-min Rain = 0
KPG1 140715Z 01015KT 09/M03 A3018 RMK A01 T00931032  RH  041%=      5-min Rain = 0
KPG1 140716Z 01015KT 09/M03 A3018 RMK A01 T00941032  RH  041%=      5-min Rain = 0
KPG1 140717Z 01014KT 09/M03 A3018 RMK A01 T00931032  RH  041%=      5-min Rain = 0
KPG1 140718Z 01014KT 09/M03 A3018 RMK A01 T00931032  RH  041%=      5-min Rain = 0
KPG1 140719Z 01014KT 09/M03 A3018 RMK A01 T00931032  RH  041%=      5-min Rain = 0
KPG1 140720Z 01015KT 09/M03 A3018 RMK A01 T00941032  RH  041%=      5-min Rain = 0
KPG1 140721Z 01015KT 09/M03 A3018 RMK A01 T00931032  RH  041%=      5-min Rain = 0
KPG1 140722Z 01014KT 09/M03 A3018 RMK A01 T00941031  RH  041%=      5-min Rain = 0
KPG1 140723Z 01016KT 09/M03 A3018 RMK A01 T00941031  RH  041%=      5-min Rain = 0
KPG1 140724Z 01014KT 09/M03 A3018 RMK A01 T00941032  RH  041%=      5-min Rain = 0
KPG1 140725Z 01015KT 09/M03 A3018 RMK A01 T00941032  RH  041%=      5-min Rain = 0
KPG1 140726Z 01016KT 09/M03 A3018 RMK A01 T00941032  RH  041%=      5-min Rain = 0
KPG1 140727Z 02015KT 09/M03 A3018 RMK A01 T00941032  RH  041%=      5-min Rain = 0
KPG1 140728Z 01014KT 09/M03 A3018 RMK A01 T00941031  RH  041%=      5-min Rain = 0
KPG1 140729Z 02016KT 09/M03 A3019 RMK A01 T00941031  RH  041%=      5-min Rain = 0
KPG1 140730Z 01014KT 09/M03 A3018 RMK A01 T00941032  RH  041%=      5-min Rain = 0
KPG1 140731Z 02014KT 09/M03 A3018 RMK A01 T00941031  RH  041%=      5-min Rain = 0
KPG1 140732Z 02014KT 09/M03 A3018 RMK A01 T00931032  RH  041%=      5-min Rain = 0
KPG1 140733Z 02016KT 09/M03 A3018 RMK A01 T00931032  RH  041%=      5-min Rain = 0
KPG1 140734Z 01016KT 09/M03 A3018 RMK A01 T00931032  RH  041%=      5-min Rain = 0
KPG1 140735Z 02017KT 09/M03 A3018 RMK A01 T00941031  RH  041%=      5-min Rain = 0
KPG1 140736Z 01015KT 09/M03 A3018 RMK A01 T00931032  RH  041%=      5-min Rain = 0
KPG1 140737Z 02014KT 09/M03 A3018 RMK A01 T00941032  RH  041%=      5-min Rain = 0
KPG1 140738Z 01017KT 09/M03 A3018 RMK A01 T00931032  RH  041%=      5-min Rain = 0
KPG1 140739Z 02015KT 09/M03 A3018 RMK A01 T00931031  RH  041%=      5-min Rain = 0
KPG1 140740Z 02015KT 09/M03 A3019 RMK A01 T00931032  RH  041%=      5-min Rain = 0
KPG1 140741Z 02015KT 09/M03 A3019 RMK A01 T00931032  RH  041%=      5-min Rain = 0
KPG1 140742Z 02016KT 09/M03 A3019 RMK A01 T00931031  RH  041%=      5-min Rain = 0
KPG1 140743Z 02015KT 09/M03 A3019 RMK A01 T00931031  RH  041%=      5-min Rain = 0
KPG1 140744Z 02016KT 09/M03 A3018 RMK A01 T00931031  RH  041%=      5-min Rain = 0
KPG1 140745Z 02017KT 09/M03 A3018 RMK A01 T00931031  RH  041%=      5-min Rain = 0
KPG1 140746Z 02017KT 09/M03 A3018 RMK A01 T00931031  RH  041%=      5-min Rain = 0
KPG1 140747Z 01016KT 09/M03 A3018 RMK A01 T00931032  RH  041%=      5-min Rain = 0
KPG1 140748Z 02015KT 09/M03 A3018 RMK A01 T00931031  RH  041%=      5-min Rain = 0
KPG1 140749Z 02014KT 09/M03 A3018 RMK A01 T00931031  RH  042%=      5-min Rain = 0
KPG1 140750Z 02017KT 09/M03 A3019 RMK A01 T00921031  RH  042%=      5-min Rain = 0
KPG1 140751Z 02017KT 09/M03 A3019 RMK A01 T00921031  RH  042%=      5-min Rain = 0
KPG1 140752Z 02016KT 09/M03 A3019 RMK A01 T00921031  RH  042%=      5-min Rain = 0
KPG1 140753Z 02015KT 09/M03 A3019 RMK A01 T00921031  RH  042%=      5-min Rain = 0
KPG1 140754Z 02015KT 09/M03 A3019 RMK A01 T00921031  RH  042%=      5-min Rain = 0
KPG1 140755Z 02016KT 09/M03 A3019 RMK A01 T00911031  RH  042%=      5-min Rain = 0
KPG1 140756Z 02016KT 09/M03 A3019 RMK A01 T00911031  RH  042%=      5-min Rain = 0
KPG1 140757Z 02013KT 09/M03 A3019 RMK A01 T00891031  RH  043%=      5-min Rain = 0
KPG1 140758Z 02014KT 09/M03 A3019 RMK A01 T00861032  RH  043%=      5-min Rain = 0
KPG1 140759Z 03014KT 08/M03 A3019 RMK A01 T00831032  RH  044%=      5-min Rain = 0
KPG1 140800Z 02015KT 08/M03 A3019 RMK A01 T00821031  RH  045%=      5-min Rain = 0
KPG1 140801Z 02016KT 08/M03 A3019 RMK A01 T00821031  RH  045%=      5-min Rain = 0
KPG1 140802Z 02015KT 08/M03 A3019 RMK A01 T00831030  RH  045%=      5-min Rain = 0
KPG1 140803Z 02015KT 08/M03 A3019 RMK A01 T00831030  RH  045%=      5-min Rain = 0
KPG1 140804Z 03015KT 08/M03 A3019 RMK A01 T00821030  RH  045%=      5-min Rain = 0
KPG1 140805Z 03014KT 08/M03 A3019 RMK A01 T00821030  RH  045%=      5-min Rain = 0
KPG1 140806Z 02013KT 08/M03 A3019 RMK A01 T00811030  RH  045%=      5-min Rain = 0
KPG1 140807Z 03013KT 08/M03 A3019 RMK A01 T00811030  RH  045%=      5-min Rain = 0
KPG1 140808Z 03014KT 08/M03 A3019 RMK A01 T00811030  RH  045%=      5-min Rain = 0
KPG1 140809Z 02014KT 08/M03 A3019 RMK A01 T00811030  RH  045%=      5-min Rain = 0
KPG1 140810Z 02013KT 08/M03 A3019 RMK A01 T00821030  RH  045%=      5-min Rain = 0
KPG1 140811Z 02013KT 08/M03 A3019 RMK A01 T00821030  RH  045%=      5-min Rain = 0
KPG1 140812Z 02015KT 08/M03 A3019 RMK A01 T00821030  RH  045%=      5-min Rain = 0
KPG1 140813Z 02015KT 08/M03 A3019 RMK A01 T00841029  RH  045%=      5-min Rain = 0
KPG1 140814Z 03017KT 08/M03 A3019 RMK A01 T00841029  RH  045%=      5-min Rain = 0
KPG1 140815Z 03017KT 09/M03 A3019 RMK A01 T00851029  RH  045%=      5-min Rain = 0
KPG1 140816Z 03016KT 09/M03 A3019 RMK A01 T00851029  RH  045%=      5-min Rain = 0
KPG1 140817Z 03014KT 08/M03 A3019 RMK A01 T00831030  RH  045%=      5-min Rain = 0
KPG1 140818Z 03015KT 08/M03 A3019 RMK A01 T00821029  RH  045%=      5-min Rain = 0
KPG1 140819Z 03014KT 08/M03 A3019 RMK A01 T00811030  RH  046%=      5-min Rain = 0
KPG1 140820Z 03014KT 08/M03 A3019 RMK A01 T00791030  RH  046%=      5-min Rain = 0
KPG1 140821Z 03014KT 08/M03 A3019 RMK A01 T00791029  RH  046%=      5-min Rain = 0
KPG1 140822Z 03015KT 08/M03 A3019 RMK A01 T00791029  RH  046%=      5-min Rain = 0
KPG1 140823Z 03015KT 08/M03 A3019 RMK A01 T00791029  RH  046%=      5-min Rain = 0
KPG1 140824Z 03014KT 08/M03 A3019 RMK A01 T00781030  RH  046%=      5-min Rain = 0
KPG1 140825Z 03015KT 08/M03 A3019 RMK A01 T00781029  RH  047%=      5-min Rain = 0
KPG1 140826Z 03015KT 08/M03 A3019 RMK A01 T00781029  RH  047%=      5-min Rain = 0
KPG1 140827Z 03015KT 08/M03 A3019 RMK A01 T00781029  RH  047%=      5-min Rain = 0
KPG1 140828Z 03015KT 08/M03 A3019 RMK A01 T00791029  RH  047%=      5-min Rain = 0
KPG1 140829Z 03016KT 08/M03 A3019 RMK A01 T00801029  RH  046%=      5-min Rain = 0
KPG1 140830Z 03015KT 08/M03 A3019 RMK A01 T00811028  RH  046%=      5-min Rain = 0
KPG1 140831Z 03015KT 08/M03 A3019 RMK A01 T00821028  RH  046%=      5-min Rain = 0
KPG1 140832Z 03016KT 08/M03 A3019 RMK A01 T00821029  RH  046%=      5-min Rain = 0
KPG1 140833Z 03016KT 08/M03 A3019 RMK A01 T00811029  RH  046%=      5-min Rain = 0
KPG1 140834Z 03014KT 08/M03 A3019 RMK A01 T00811029  RH  046%=      5-min Rain = 0
KPG1 140835Z 03014KT 08/M03 A3019 RMK A01 T00801029  RH  046%=      5-min Rain = 0
KPG1 140836Z 03015KT 08/M03 A3019 RMK A01 T00791029  RH  046%=      5-min Rain = 0
KPG1 140837Z 03014KT 08/M03 A302 RMK A01 T00781029  RH  047%=      5-min Rain = 0
KPG1 140838Z 03015KT 08/M03 A302 RMK A01 T00761030  RH  047%=      5-min Rain = 0
KPG1 140839Z 03015KT 08/M03 A302 RMK A01 T00761029  RH  047%=      5-min Rain = 0
KPG1 140840Z 03016KT 08/M03 A302 RMK A01 T00771029  RH  047%=      5-min Rain = 0
KPG1 140841Z 03015KT 08/M03 A302 RMK A01 T00781028  RH  047%=      5-min Rain = 0
KPG1 140842Z 03016KT 08/M03 A302 RMK A01 T00781029  RH  047%=      5-min Rain = 0
KPG1 140843Z 03015KT 08/M03 A302 RMK A01 T00781028  RH  047%=      5-min Rain = 0
KPG1 140844Z 03013KT 08/M03 A302 RMK A01 T00781028  RH  047%=      5-min Rain = 0
KPG1 140845Z 03014KT 08/M03 A302 RMK A01 T00761029  RH  047%=      5-min Rain = 0
KPG1 140846Z 03015KT 08/M03 A302 RMK A01 T00761029  RH  048%=      5-min Rain = 0
KPG1 140847Z 03014KT 08/M03 A302 RMK A01 T00761029  RH  048%=      5-min Rain = 0
KPG1 140848Z 03015KT 08/M03 A302 RMK A01 T00761028  RH  048%=      5-min Rain = 0
KPG1 140849Z 03015KT 08/M03 A302 RMK A01 T00771028  RH  048%=      5-min Rain = 0
KPG1 140850Z 04014KT 08/M03 A302 RMK A01 T00771028  RH  047%=      5-min Rain = 0
KPG1 140851Z 03014KT 08/M03 A302 RMK A01 T00781028  RH  047%=      5-min Rain = 0
KPG1 140852Z 04014KT 08/M03 A302 RMK A01 T00791028  RH  047%=      5-min Rain = 0
KPG1 140853Z 03015KT 08/M03 A302 RMK A01 T00791028  RH  047%=      5-min Rain = 0
KPG1 140854Z 03015KT 08/M03 A302 RMK A01 T00791028  RH  047%=      5-min Rain = 0
KPG1 140855Z 03013KT 08/M03 A302 RMK A01 T00791028  RH  047%=      5-min Rain = 0
KPG1 140856Z 03016KT 08/M03 A302 RMK A01 T00781028  RH  047%=      5-min Rain = 0
KPG1 140857Z 03015KT 08/M03 A302 RMK A01 T00771028  RH  047%=      5-min Rain = 0
KPG1 140858Z 04013KT 08/M03 A302 RMK A01 T00771028  RH  047%=      5-min Rain = 0
KPG1 140859Z 04014KT 08/M03 A302 RMK A01 T00761028  RH  048%=      5-min Rain = 0
KPG1 140900Z 03013KT 08/M03 A302 RMK A01 T00761028  RH  048%=      5-min Rain = 0
KPG1 140901Z 04016KT 08/M03 A302 RMK A01 T00761028  RH  048%=      5-min Rain = 0
KPG1 140902Z 05017KT 08/M03 A302 RMK A01 T00771026  RH  048%=      5-min Rain = 0
KPG1 140903Z 05016KT 08/M03 A302 RMK A01 T00791026  RH  048%=      5-min Rain = 0
KPG1 140904Z 04016KT 08/M03 A302 RMK A01 T00801026  RH  047%=      5-min Rain = 0
KPG1 140905Z 03017KT 08/M03 A302 RMK A01 T00801027  RH  047%=      5-min Rain = 0
KPG1 140906Z 04017KT 08/M03 A302 RMK A01 T00791027  RH  047%=      5-min Rain = 0
KPG1 140907Z 04016KT 08/M03 A302 RMK A01 T00781027  RH  047%=      5-min Rain = 0
KPG1 140908Z 04015KT 08/M03 A302 RMK A01 T00781027  RH  047%=      5-min Rain = 0
KPG1 140909Z 04016KT 08/M03 A302 RMK A01 T00781027  RH  048%=      5-min Rain = 0
KPG1 140910Z 04016KT 08/M03 A302 RMK A01 T00771027  RH  048%=      5-min Rain = 0
KPG1 140911Z 03015KT 08/M03 A302 RMK A01 T00761027  RH  048%=      5-min Rain = 0
KPG1 140912Z 03017KT 08/M03 A302 RMK A01 T00751027  RH  048%=      5-min Rain = 0
KPG1 140913Z 04015KT 08/M03 A302 RMK A01 T00751027  RH  049%=      5-min Rain = 0
KPG1 140914Z 04016KT 08/M03 A302 RMK A01 T00751026  RH  049%=      5-min Rain = 0
KPG1 140915Z 04017KT 08/M03 A302 RMK A01 T00751026  RH  049%=      5-min Rain = 0
KPG1 140916Z 04016KT 08/M03 A302 RMK A01 T00751026  RH  049%=      5-min Rain = 0
KPG1 140917Z 04018KT 08/M03 A302 RMK A01 T00751026  RH  049%=      5-min Rain = 0
KPG1 140918Z 04017KT 08/M03 A302 RMK A01 T00751026  RH  049%=      5-min Rain = 0
KPG1 140919Z 03015KT 08/M03 A302 RMK A01 T00761026  RH  048%=      5-min Rain = 0
KPG1 140920Z 04015KT 07/M03 A302 RMK A01 T00741028  RH  048%=      5-min Rain = 0
KPG1 140921Z 03016KT 07/M03 A302 RMK A01 T00731028  RH  049%=      5-min Rain = 0
KPG1 140922Z 03015KT 07/M03 A302 RMK A01 T00711027  RH  049%=      5-min Rain = 0
KPG1 140923Z 04016KT 07/M03 A302 RMK A01 T00701027  RH  050%=      5-min Rain = 0
KPG1 140924Z 03016KT 07/M03 A302 RMK A01 T00701027  RH  050%=      5-min Rain = 0
KPG1 140925Z 04016KT 07/M03 A302 RMK A01 T00691027  RH  050%=      5-min Rain = 0
KPG1 140926Z 03015KT 07/M03 A302 RMK A01 T00681027  RH  051%=      5-min Rain = 0
KPG1 140927Z 03016KT 07/M03 A302 RMK A01 T00671028  RH  051%=      5-min Rain = 0
KPG1 140928Z 03016KT 07/M03 A302 RMK A01 T00661028  RH  051%=      5-min Rain = 0
KPG1 140929Z 03016KT 07/M03 A302 RMK A01 T00651028  RH  051%=      5-min Rain = 0
KPG1 140930Z 03016KT 06/M03 A302 RMK A01 T00631028  RH  052%=      5-min Rain = 0
KPG1 140931Z 03016KT 06/M03 A302 RMK A01 T00631028  RH  052%=      5-min Rain = 0
KPG1 140932Z 03016KT 06/M03 A302 RMK A01 T00621028  RH  053%=      5-min Rain = 0
KPG1 140933Z 03016KT 06/M03 A302 RMK A01 T00621028  RH  053%=      5-min Rain = 0
KPG1 140934Z 03017KT 06/M03 A302 RMK A01 T00621027  RH  053%=      5-min Rain = 0
KPG1 140935Z 03016KT 06/M03 A302 RMK A01 T00611027  RH  053%=      5-min Rain = 0
KPG1 140936Z 03017KT 06/M03 A302 RMK A01 T00611027  RH  053%=      5-min Rain = 0
KPG1 140937Z 03017KT 06/M03 A302 RMK A01 T00601026  RH  054%=      5-min Rain = 0
KPG1 140938Z 03017KT 06/M03 A302 RMK A01 T00611025  RH  054%=      5-min Rain = 0
KPG1 140939Z 03017KT 06/M02 A3021 RMK A01 T00621024  RH  054%=      5-min Rain = 0
KPG1 140940Z 03016KT 06/M02 A3021 RMK A01 T00621023  RH  054%=      5-min Rain = 0
KPG1 140941Z 04018KT 06/M02 A3021 RMK A01 T00631022  RH  055%=      5-min Rain = 0
KPG1 140942Z 04018KT 06/M02 A3021 RMK A01 T00631022  RH  054%=      5-min Rain = 0
KPG1 140943Z 04019KT 06/M02 A3021 RMK A01 T00641022  RH  054%=      5-min Rain = 0
KPG1 140944Z 04018KT 06/M02 A3021 RMK A01 T00641022  RH  054%=      5-min Rain = 0
KPG1 140945Z 04018KT 06/M02 A3021 RMK A01 T00641022  RH  054%=      5-min Rain = 0
KPG1 140946Z 04018KT 06/M02 A3021 RMK A01 T00641021  RH  055%=      5-min Rain = 0
KPG1 140947Z 04017KT 06/M02 A3021 RMK A01 T00631021  RH  055%=      5-min Rain = 0
KPG1 140948Z 04017KT 06/M02 A3021 RMK A01 T00621020  RH  055%=      5-min Rain = 0
KPG1 140949Z 04018KT 06/M02 A3021 RMK A01 T00621020  RH  056%=      5-min Rain = 0
KPG1 140950Z 04018KT 06/M02 A3021 RMK A01 T00611021  RH  056%=      5-min Rain = 0
KPG1 140951Z 04016KT 06/M02 A3021 RMK A01 T00601021  RH  056%=      5-min Rain = 0
KPG1 140952Z 04016KT 06/M02 A3021 RMK A01 T00591022  RH  056%=      5-min Rain = 0
KPG1 140953Z 04017KT 06/M02 A302 RMK A01 T00581023  RH  056%=      5-min Rain = 0
KPG1 140954Z 03015KT 06/M02 A302 RMK A01 T00571024  RH  056%=      5-min Rain = 0
KPG1 140955Z 03016KT 06/M02 A3021 RMK A01 T00561024  RH  057%=      5-min Rain = 0
KPG1 140956Z 03015KT 05/M02 A3021 RMK A01 T00541023  RH  057%=      5-min Rain = 0
KPG1 140957Z 03017KT 05/M02 A3021 RMK A01 T00531023  RH  058%=      5-min Rain = 0
KPG1 140958Z 03017KT 05/M02 A3021 RMK A01 T00521022  RH  058%=      5-min Rain = 0
KPG1 140959Z 03017KT 05/M02 A3021 RMK A01 T00521022  RH  059%=      5-min Rain = 0
KPG1 141000Z 03017KT 05/M02 A3021 RMK A01 T00521021  RH  059%=      5-min Rain = 0
KPG1 141001Z 02020KT 05/M02 A3021 RMK A01 T00531019  RH  059%=      5-min Rain = 0
KPG1 141002Z 03018KT 05/M02 A3021 RMK A01 T00541019  RH  059%=      5-min Rain = 0
KPG1 141003Z 03016KT 06/M02 A3021 RMK A01 T00551019  RH  059%=      5-min Rain = 0
KPG1 141004Z 03017KT 05/M02 A3021 RMK A01 T00541019  RH  059%=      5-min Rain = 0
KPG1 141005Z 03017KT 05/M02 A3021 RMK A01 T00541018  RH  060%=      5-min Rain = 0
KPG1 141006Z 03017KT 05/M02 A3021 RMK A01 T00541018  RH  060%=      5-min Rain = 0
KPG1 141007Z 03016KT 05/M02 A3021 RMK A01 T00541017  RH  060%=      5-min Rain = 0
KPG1 141008Z 03016KT 06/M02 A3021 RMK A01 T00551017  RH  060%=      5-min Rain = 0
KPG1 141009Z 04017KT 06/M02 A3021 RMK A01 T00551016  RH  061%=      5-min Rain = 0
KPG1 141010Z 03015KT 06/M02 A3021 RMK A01 T00551015  RH  061%=      5-min Rain = 0
KPG1 141011Z 03015KT 05/M02 A3021 RMK A01 T00541016  RH  060%=      5-min Rain = 0
KPG1 141012Z 03015KT 05/M02 A3021 RMK A01 T00511020  RH  060%=      5-min Rain = 0
KPG1 141013Z 03015KT 05/M02 A3021 RMK A01 T00491020  RH  061%=      5-min Rain = 0
KPG1 141014Z 03015KT 05/M02 A3021 RMK A01 T00491018  RH  062%=      5-min Rain = 0
KPG1 141015Z 03014KT 05/M02 A3021 RMK A01 T00491018  RH  062%=      5-min Rain = 0
KPG1 141016Z 03016KT 05/M02 A3022 RMK A01 T00481019  RH  062%=      5-min Rain = 0
KPG1 141017Z 03016KT 05/M02 A3022 RMK A01 T00471019  RH  062%=      5-min Rain = 0
KPG1 141018Z 03015KT 05/M02 A3022 RMK A01 T00471018  RH  063%=      5-min Rain = 0
KPG1 141019Z 02017KT 05/M02 A3021 RMK A01 T00471016  RH  063%=      5-min Rain = 0
KPG1 141020Z 03018KT 05/M02 A3021 RMK A01 T00481015  RH  064%=      5-min Rain = 0
KPG1 141021Z 03018KT 05/M01 A3021 RMK A01 T00491013  RH  064%=      5-min Rain = 0
KPG1 141022Z 03018KT 05/M01 A3021 RMK A01 T00501012  RH  064%=      5-min Rain = 0
KPG1 141023Z 03016KT 05/M01 A3021 RMK A01 T00501012  RH  064%=      5-min Rain = 0
KPG1 141024Z 03015KT 05/M01 A3021 RMK A01 T00501012  RH  064%=      5-min Rain = 0
KPG1 141025Z 03015KT 05/M01 A3022 RMK A01 T00491013  RH  064%=      5-min Rain = 0
KPG1 141026Z 03016KT 05/M01 A3022 RMK A01 T00481014  RH  064%=      5-min Rain = 0
KPG1 141027Z 03016KT 05/M01 A3022 RMK A01 T00461014  RH  065%=      5-min Rain = 0
KPG1 141028Z 02017KT 05/M01 A3022 RMK A01 T00451014  RH  065%=      5-min Rain = 0
KPG1 141029Z 02019KT 05/M01 A3022 RMK A01 T00461012  RH  066%=      5-min Rain = 0
KPG1 141030Z 02017KT 05/M01 A3022 RMK A01 T00481011  RH  066%=      5-min Rain = 0
KPG1 141031Z 02017KT 05/M01 A3022 RMK A01 T00481011  RH  066%=      5-min Rain = 0
KPG1 141032Z 02017KT 05/M01 A3022 RMK A01 T00481011  RH  066%=      5-min Rain = 0
KPG1 141033Z 02018KT 05/M01 A3022 RMK A01 T00481010  RH  066%=      5-min Rain = 0
KPG1 141034Z 02017KT 05/M01 A3022 RMK A01 T00481010  RH  066%=      5-min Rain = 0
KPG1 141035Z 03015KT 05/M01 A3022 RMK A01 T00481010  RH  066%=      5-min Rain = 0
KPG1 141036Z 02015KT 05/M01 A3022 RMK A01 T00461012  RH  066%=      5-min Rain = 0
KPG1 141037Z 02018KT 05/M01 A3022 RMK A01 T00461011  RH  067%=      5-min Rain = 0
KPG1 141038Z 02019KT 05/M01 A3022 RMK A01 T00461009  RH  067%=      5-min Rain = 0
KPG1 141039Z 02019KT 05/M01 A3022 RMK A01 T00481008  RH  067%=      5-min Rain = 0
KPG1 141040Z 02020KT 05/M01 A3022 RMK A01 T00481007  RH  067%=      5-min Rain = 0
KPG1 141041Z 02020KT 05/M01 A3022 RMK A01 T00481006  RH  068%=      5-min Rain = 0
KPG1 141042Z 02017KT 05/M01 A3022 RMK A01 T00481006  RH  068%=      5-min Rain = 0
KPG1 141043Z 02018KT 05/M01 A3022 RMK A01 T00471007  RH  068%=      5-min Rain = 0
KPG1 141044Z 02018KT 05/M01 A3022 RMK A01 T00471007  RH  068%=      5-min Rain = 0
KPG1 141045Z 02018KT 05/M01 A3022 RMK A01 T00471006  RH  068%=      5-min Rain = 0
KPG1 141046Z 02020KT 05/M01 A3022 RMK A01 T00471006  RH  069%=      5-min Rain = 0
KPG1 141047Z 02018KT 05/M01 A3022 RMK A01 T00471005  RH  069%=      5-min Rain = 0
KPG1 141048Z 02017KT 05/M01 A3022 RMK A01 T00461006  RH  069%=      5-min Rain = 0
KPG1 141049Z 02019KT 05/M01 A3022 RMK A01 T00461005  RH  069%=      5-min Rain = 0
KPG1 141050Z 02018KT 05/M00 A3022 RMK A01 T00461004  RH  070%=      5-min Rain = 0
KPG1 141051Z 02019KT 05/M00 A3022 RMK A01 T00461004  RH  070%=      5-min Rain = 0
KPG1 141052Z 02019KT 05/M00 A3022 RMK A01 T00461004  RH  070%=      5-min Rain = 0
KPG1 141053Z 02016KT 05/M00 A3022 RMK A01 T00461004  RH  070%=      5-min Rain = 0
KPG1 141054Z 02019KT 05/M00 A3022 RMK A01 T00451004  RH  070%=      5-min Rain = 0
KPG1 141055Z 02018KT 05/M00 A3022 RMK A01 T00451004  RH  071%=      5-min Rain = 0
KPG1 141056Z 02016KT 04/M00 A3022 RMK A01 T00441004  RH  071%=      5-min Rain = 0
KPG1 141057Z 02017KT 04/M00 A3022 RMK A01 T00441004  RH  071%=      5-min Rain = 0
KPG1 141058Z 02018KT 04/M00 A3022 RMK A01 T00441004  RH  071%=      5-min Rain = 0
KPG1 141059Z 02018KT 04/M00 A3022 RMK A01 T00441004  RH  071%=      5-min Rain = 0
KPG1 141100Z 02017KT 04/M00 A3022 RMK A01 T00441004  RH  071%=      5-min Rain = 0
KPG1 141101Z 02017KT 04/M00 A3022 RMK A01 T00431004  RH  071%=      5-min Rain = 0
KPG1 141102Z 02016KT 04/M01 A3022 RMK A01 T00421005  RH  071%=      5-min Rain = 0
KPG1 141103Z 02018KT 04/M00 A3022 RMK A01 T00421004  RH  072%=      5-min Rain = 0
KPG1 141104Z 02019KT 04/M00 A3022 RMK A01 T00421004  RH  072%=      5-min Rain = 0
KPG1 141105Z 02019KT 04/M00 A3022 RMK A01 T00421003  RH  072%=      5-min Rain = 0
KPG1 141106Z 02019KT 04/M00 A3022 RMK A01 T00421003  RH  073%=      5-min Rain = 0
KPG1 141107Z 02018KT 04/M00 A3022 RMK A01 T00421003  RH  073%=      5-min Rain = 0
KPG1 141108Z 03016KT 04/M00 A3022 RMK A01 T00421003  RH  073%=      5-min Rain = 0
KPG1 141109Z 03018KT 04/M00 A3022 RMK A01 T00411003  RH  073%=      5-min Rain = 0
KPG1 141110Z 02018KT 04/M00 A3022 RMK A01 T00411003  RH  073%=      5-min Rain = 0
KPG1 141111Z 02017KT 04/M00 A3022 RMK A01 T00411003  RH  073%=      5-min Rain = 0
KPG1 141112Z 03016KT 04/M00 A3022 RMK A01 T00401004  RH  073%=      5-min Rain = 0
KPG1 141113Z 02015KT 04/M00 A3022 RMK A01 T00401004  RH  073%=      5-min Rain = 0
KPG1 141114Z 02015KT 04/M00 A3022 RMK A01 T00391004  RH  073%=      5-min Rain = 0
KPG1 141115Z 02017KT 04/M00 A3022 RMK A01 T00391003  RH  074%=      5-min Rain = 0
KPG1 141116Z 02016KT 04/M00 A3022 RMK A01 T00401003  RH  074%=      5-min Rain = 0
KPG1 141117Z 02018KT 04/M00 A3022 RMK A01 T00411002  RH  074%=      5-min Rain = 0
KPG1 141118Z 02018KT 04/M00 A3022 RMK A01 T00421001  RH  074%=      5-min Rain = 0
KPG1 141119Z 02018KT 04/M00 A3022 RMK A01 T00421001  RH  073%=      5-min Rain = 0
KPG1 141120Z 02018KT 04/M00 A3022 RMK A01 T00421001  RH  073%=      5-min Rain = 0
KPG1 141121Z 02019KT 04/M00 A3022 RMK A01 T00431001  RH  073%=      5-min Rain = 0
KPG1 141122Z 02019KT 04/00 A3022 RMK A01 T004300-0  RH  073%=      5-min Rain = 0
KPG1 141123Z 02017KT 04/00 A3022 RMK A01 T004300-0  RH  074%=      5-min Rain = 0
KPG1 141124Z 02017KT 04/M00 A3022 RMK A01 T00421001  RH  074%=      5-min Rain = 0
KPG1 141125Z 02018KT 04/M00 A3022 RMK A01 T00411002  RH  074%=      5-min Rain = 0
KPG1 141126Z 02018KT 04/M00 A3022 RMK A01 T00401002  RH  074%=      5-min Rain = 0
KPG1 141127Z 03015KT 04/M00 A3022 RMK A01 T00401001  RH  075%=      5-min Rain = 0
KPG1 141128Z 03016KT 04/M00 A3022 RMK A01 T00391002  RH  075%=      5-min Rain = 0
KPG1 141129Z 02016KT 04/M00 A3023 RMK A01 T00391001  RH  075%=      5-min Rain = 0
KPG1 141130Z 02016KT 04/00 A3022 RMK A01 T003900-0  RH  075%=      5-min Rain = 0
KPG1 141131Z 02017KT 04/00 A3023 RMK A01 T003900-0  RH  075%=      5-min Rain = 0
KPG1 141132Z 03015KT 04/00 A3023 RMK A01 T003900-0  RH  075%=      5-min Rain = 0
KPG1 141133Z 03015KT 04/00 A3023 RMK A01 T003900-0  RH  076%=      5-min Rain = 0
KPG1 141134Z 03015KT 04/00 A3023 RMK A01 T003900-0  RH  076%=      5-min Rain = 0
KPG1 141135Z 03017KT 04/00 A3023 RMK A01 T003900-0  RH  076%=      5-min Rain = 0
KPG1 141136Z 03017KT 04/00 A3023 RMK A01 T00390000  RH  076%=      5-min Rain = 0
KPG1 141137Z 03017KT 04/00 A3023 RMK A01 T00390000  RH  076%=      5-min Rain = 0
KPG1 141138Z 02014KT 04/00 A3023 RMK A01 T00390000  RH  076%=      5-min Rain = 0
KPG1 141139Z 02015KT 04/M00 A3023 RMK A01 T00381001  RH  076%=      5-min Rain = 0
KPG1 141140Z 02016KT 04/M00 A3023 RMK A01 T00371001  RH  076%=      5-min Rain = 0
KPG1 141141Z 02017KT 04/00 A3023 RMK A01 T00380000  RH  077%=      5-min Rain = 0
KPG1 141142Z 02017KT 04/00 A3023 RMK A01 T003800-0  RH  076%=      5-min Rain = 0
KPG1 141143Z 02016KT 04/M00 A3023 RMK A01 T00371001  RH  076%=      5-min Rain = 0
KPG1 141144Z 02015KT 04/M00 A3023 RMK A01 T00361002  RH  076%=      5-min Rain = 0
KPG1 141145Z 02014KT 04/M00 A3023 RMK A01 T00351002  RH  077%=      5-min Rain = 0
KPG1 141146Z 03015KT 03/M00 A3023 RMK A01 T00341002  RH  077%=      5-min Rain = 0
KPG1 141147Z 02016KT 03/M00 A3023 RMK A01 T00341001  RH  078%=      5-min Rain = 0
KPG1 141148Z 02014KT 03/M00 A3023 RMK A01 T00341001  RH  078%=      5-min Rain = 0
KPG1 141149Z 02016KT 03/00 A3023 RMK A01 T003400-0  RH  078%=      5-min Rain = 0
KPG1 141150Z 02016KT 04/00 A3023 RMK A01 T00350001  RH  078%=      5-min Rain = 0
KPG1 141151Z 02015KT 04/00 A3023 RMK A01 T00350000  RH  078%=      5-min Rain = 0
KPG1 141152Z 03015KT 03/00 A3023 RMK A01 T003400-0  RH  078%=      5-min Rain = 0
KPG1 141153Z 02014KT 03/M00 A3023 RMK A01 T00331001  RH  078%=      5-min Rain = 0
KPG1 141154Z 02014KT 03/00 A3023 RMK A01 T003300-0  RH  079%=      5-min Rain = 0
KPG1 141155Z 02016KT 03/00 A3023 RMK A01 T003300-0  RH  079%=      5-min Rain = 0
KPG1 141156Z 02017KT 03/00 A3023 RMK A01 T00330001  RH  079%=      5-min Rain = 0
KPG1 141157Z 02017KT 03/00 A3023 RMK A01 T00340001  RH  079%=      5-min Rain = 0
KPG1 141158Z 02018KT 03/00 A3023 RMK A01 T00340002  RH  079%=      5-min Rain = 0
KPG1 141159Z 02018KT 04/00 A3023 RMK A01 T00350002  RH  079%=      5-min Rain = 0
KPG1 141200Z 02017KT 04/00 A3023 RMK A01 T00360002  RH  079%=      5-min Rain = 0
KPG1 141201Z 02016KT 04/00 A3023 RMK A01 T00360002  RH  079%=      5-min Rain = 0
KPG1 141202Z 02018KT 04/00 A3023 RMK A01 T00350002  RH  079%=      5-min Rain = 0
KPG1 141203Z 02018KT 04/00 A3023 RMK A01 T00360003  RH  079%=      5-min Rain = 0
KPG1 141204Z 02017KT 04/00 A3023 RMK A01 T00360002  RH  079%=      5-min Rain = 0
KPG1 141205Z 02018KT 04/00 A3023 RMK A01 T00360003  RH  079%=      5-min Rain = 0
KPG1 141206Z 02017KT 04/00 A3023 RMK A01 T00360003  RH  079%=      5-min Rain = 0
KPG1 141207Z 02017KT 04/00 A3023 RMK A01 T00360003  RH  079%=      5-min Rain = 0
KPG1 141208Z 02018KT 04/00 A3023 RMK A01 T00360003  RH  079%=      5-min Rain = 0
KPG1 141209Z 02018KT 04/00 A3023 RMK A01 T00360003  RH  079%=      5-min Rain = 0
KPG1 141210Z 02017KT 04/00 A3023 RMK A01 T00360003  RH  079%=      5-min Rain = 0
KPG1 141211Z 02017KT 04/00 A3023 RMK A01 T00360003  RH  079%=      5-min Rain = 0
KPG1 141212Z 02017KT 04/00 A3024 RMK A01 T00360003  RH  079%=      5-min Rain = 0
KPG1 141213Z 02016KT 04/00 A3024 RMK A01 T00350003  RH  079%=      5-min Rain = 0
KPG1 141214Z 02017KT 04/00 A3024 RMK A01 T00350003  RH  080%=      5-min Rain = 0
KPG1 141215Z 02017KT 04/00 A3024 RMK A01 T00350003  RH  080%=      5-min Rain = 0
KPG1 141216Z 02018KT 04/00 A3024 RMK A01 T00350004  RH  080%=      5-min Rain = 0
KPG1 141217Z 02017KT 04/00 A3024 RMK A01 T00350004  RH  080%=      5-min Rain = 0
KPG1 141218Z 02017KT 04/00 A3024 RMK A01 T00350003  RH  080%=      5-min Rain = 0
KPG1 141219Z 01017KT 04/00 A3024 RMK A01 T00350004  RH  080%=      5-min Rain = 0
KPG1 141220Z 02018KT 04/00 A3024 RMK A01 T00350004  RH  080%=      5-min Rain = 0
KPG1 141221Z 02018KT 03/00 A3024 RMK A01 T00340004  RH  080%=      5-min Rain = 0
KPG1 141222Z 02018KT 04/00 A3024 RMK A01 T00350004  RH  080%=      5-min Rain = 0
KPG1 141223Z 02018KT 04/00 A3024 RMK A01 T00350004  RH  080%=      5-min Rain = 0
KPG1 141224Z 02018KT 03/00 A3024 RMK A01 T00340004  RH  080%=      5-min Rain = 0
KPG1 141225Z 02019KT 03/00 A3024 RMK A01 T00340004  RH  081%=      5-min Rain = 0
KPG1 141226Z 02018KT 03/00 A3024 RMK A01 T00340004  RH  081%=      5-min Rain = 0
KPG1 141227Z 02018KT 03/00 A3024 RMK A01 T00340004  RH  081%=      5-min Rain = 0
KPG1 141228Z 02018KT 03/00 A3024 RMK A01 T00340004  RH  081%=      5-min Rain = 0
KPG1 141229Z 02018KT 03/00 A3024 RMK A01 T00330004  RH  081%=      5-min Rain = 0
KPG1 141230Z 02018KT 03/00 A3024 RMK A01 T00330004  RH  081%=      5-min Rain = 0
KPG1 141231Z 02018KT 03/00 A3024 RMK A01 T00330004  RH  081%=      5-min Rain = 0
KPG1 141232Z 02019KT 03/00 A3024 RMK A01 T00320003  RH  082%=      5-min Rain = 0
KPG1 141233Z 02017KT 03/00 A3025 RMK A01 T00320004  RH  082%=      5-min Rain = 0
KPG1 141234Z 02018KT 03/00 A3025 RMK A01 T00320004  RH  082%=      5-min Rain = 0
KPG1 141235Z 02016KT 03/00 A3025 RMK A01 T00320004  RH  082%=      5-min Rain = 0
KPG1 141236Z 02017KT 03/00 A3025 RMK A01 T00320004  RH  082%=      5-min Rain = 0
KPG1 141237Z 02018KT 03/00 A3025 RMK A01 T00320004  RH  082%=      5-min Rain = 0
KPG1 141238Z 02018KT 03/00 A3025 RMK A01 T00320004  RH  082%=      5-min Rain = 0
KPG1 141239Z 02018KT 03/00 A3025 RMK A01 T00320004  RH  082%=      5-min Rain = 0
KPG1 141240Z 02019KT 03/00 A3025 RMK A01 T00320004  RH  082%=      5-min Rain = 0
KPG1 141241Z 02018KT 03/00 A3025 RMK A01 T00320004  RH  082%=      5-min Rain = 0
KPG1 141242Z 02017KT 03/00 A3025 RMK A01 T00320004  RH  082%=      5-min Rain = 0
KPG1 141243Z 02017KT 03/00 A3025 RMK A01 T00320004  RH  082%=      5-min Rain = 0
KPG1 141244Z 02016KT 03/00 A3025 RMK A01 T00310004  RH  082%=      5-min Rain = 0
KPG1 141245Z 02017KT 03/00 A3025 RMK A01 T00310004  RH  082%=      5-min Rain = 0
KPG1 141246Z 02017KT 03/00 A3025 RMK A01 T00300004  RH  083%=      5-min Rain = 0
KPG1 141247Z 02017KT 03/00 A3025 RMK A01 T00300004  RH  083%=      5-min Rain = 0
KPG1 141248Z 02016G21KT 03/00 A3025 RMK A01 T00300004  RH  083%=      5-min Rain = 0
KPG1 141249Z 02015KT 03/00 A3025 RMK A01 T00300004  RH  083%=      5-min Rain = 0
KPG1 141250Z 02015KT 03/00 A3025 RMK A01 T00300004  RH  083%=      5-min Rain = 0
KPG1 141251Z 02017KT 03/00 A3025 RMK A01 T00290004  RH  083%=      5-min Rain = 0
KPG1 141252Z 02014KT 03/00 A3026 RMK A01 T00290004  RH  083%=      5-min Rain = 0
KPG1 141253Z 02015KT 03/00 A3026 RMK A01 T00290004  RH  084%=      5-min Rain = 0
KPG1 141254Z 02016KT 03/00 A3026 RMK A01 T00290004  RH  084%=      5-min Rain = 0
KPG1 141255Z 02015KT 03/00 A3026 RMK A01 T00290004  RH  084%=      5-min Rain = 0
KPG1 141256Z 02016KT 03/00 A3026 RMK A01 T00290004  RH  084%=      5-min Rain = 0
KPG1 141257Z 02016KT 03/00 A3026 RMK A01 T00290004  RH  084%=      5-min Rain = 0
KPG1 141258Z 02015KT 03/01 A3026 RMK A01 T00290005  RH  084%=      5-min Rain = 0
KPG1 141259Z 02015KT 03/00 A3026 RMK A01 T00290004  RH  084%=      5-min Rain = 0
KPG1 141300Z 02015KT 03/00 A3026 RMK A01 T00290004  RH  084%=      5-min Rain = 0
KPG1 141301Z 02015KT 03/00 A3026 RMK A01 T00280004  RH  084%=      5-min Rain = 0
KPG1 141302Z 02015KT 03/00 A3026 RMK A01 T00280004  RH  084%=      5-min Rain = 0
KPG1 141303Z 02015KT 03/00 A3026 RMK A01 T00280004  RH  084%=      5-min Rain = 0
KPG1 141304Z 02015KT 03/00 A3026 RMK A01 T00280004  RH  084%=      5-min Rain = 0
KPG1 141305Z 02014KT 03/00 A3026 RMK A01 T00280004  RH  084%=      5-min Rain = 0
KPG1 141306Z 02015KT 03/00 A3026 RMK A01 T00280004  RH  085%=      5-min Rain = 0
KPG1 141307Z 02015KT 03/00 A3026 RMK A01 T00280004  RH  085%=      5-min Rain = 0
KPG1 141308Z 02015KT 03/00 A3026 RMK A01 T00280004  RH  085%=      5-min Rain = 0
KPG1 141309Z 02014KT 03/00 A3026 RMK A01 T00280004  RH  085%=      5-min Rain = 0
KPG1 141310Z 02015KT 03/01 A3026 RMK A01 T00280005  RH  085%=      5-min Rain = 0
KPG1 141311Z 02014KT 03/01 A3026 RMK A01 T00280005  RH  085%=      5-min Rain = 0
KPG1 141312Z 02013KT 03/00 A3026 RMK A01 T00270004  RH  085%=      5-min Rain = 0
KPG1 141313Z 03012KT 03/00 A3026 RMK A01 T00270004  RH  085%=      5-min Rain = 0
KPG1 141314Z 03013KT 03/00 A3026 RMK A01 T00260003  RH  085%=      5-min Rain = 0
KPG1 141315Z 03015KT 03/00 A3026 RMK A01 T00260004  RH  085%=      5-min Rain = 0
KPG1 141316Z 03013KT 03/00 A3026 RMK A01 T00260004  RH  086%=      5-min Rain = 0
KPG1 141317Z 02015KT 03/00 A3026 RMK A01 T00260004  RH  086%=      5-min Rain = 0
KPG1 141318Z 03013KT 03/00 A3026 RMK A01 T00260004  RH  086%=      5-min Rain = 0
KPG1 141319Z 03013KT 03/00 A3027 RMK A01 T00260004  RH  086%=      5-min Rain = 0
KPG1 141320Z 03014KT 03/00 A3027 RMK A01 T00250004  RH  086%=      5-min Rain = 0
KPG1 141321Z 03013KT 03/00 A3027 RMK A01 T00250004  RH  086%=      5-min Rain = 0
KPG1 141322Z 03014KT 03/00 A3027 RMK A01 T00250004  RH  086%=      5-min Rain = 0
KPG1 141323Z 03015KT 03/00 A3027 RMK A01 T00250004  RH  086%=      5-min Rain = 0
KPG1 141324Z 03014KT 03/01 A3027 RMK A01 T00250005  RH  086%=      5-min Rain = 0
KPG1 141325Z 03013KT 03/00 A3027 RMK A01 T00250004  RH  086%=      5-min Rain = 0
KPG1 141326Z 03015KT 03/01 A3027 RMK A01 T00260005  RH  086%=      5-min Rain = 0
KPG1 141327Z 03016KT 03/01 A3027 RMK A01 T00260005  RH  086%=      5-min Rain = 0
KPG1 141328Z 03015KT 03/01 A3027 RMK A01 T00260005  RH  086%=      5-min Rain = 0
KPG1 141329Z 03016KT 03/01 A3027 RMK A01 T00260005  RH  086%=      5-min Rain = 0
KPG1 141330Z 03017KT 03/01 A3027 RMK A01 T00270006  RH  086%=      5-min Rain = 0
KPG1 141331Z 03016KT 03/01 A3027 RMK A01 T00260005  RH  086%=      5-min Rain = 0
KPG1 141332Z 03016KT 03/01 A3027 RMK A01 T00260005  RH  086%=      5-min Rain = 0
KPG1 141333Z 03017KT 03/01 A3027 RMK A01 T00260005  RH  086%=      5-min Rain = 0
KPG1 141334Z 03017KT 03/01 A3027 RMK A01 T00270005  RH  086%=      5-min Rain = 0
KPG1 141335Z 04015KT 03/01 A3027 RMK A01 T00270006  RH  086%=      5-min Rain = 0
KPG1 141336Z 03014KT 03/01 A3027 RMK A01 T00270006  RH  086%=      5-min Rain = 0
KPG1 141337Z 04014KT 03/01 A3027 RMK A01 T00270005  RH  086%=      5-min Rain = 0
KPG1 141338Z 04016KT 03/01 A3027 RMK A01 T00270005  RH  086%=      5-min Rain = 0
KPG1 141339Z 03014KT 03/01 A3027 RMK A01 T00270005  RH  086%=      5-min Rain = 0
KPG1 141340Z 03015KT 03/01 A3027 RMK A01 T00260005  RH  086%=      5-min Rain = 0
KPG1 141341Z 03015KT 03/01 A3027 RMK A01 T00260005  RH  086%=      5-min Rain = 0
KPG1 141342Z 03015KT 03/01 A3027 RMK A01 T00260005  RH  086%=      5-min Rain = 0
KPG1 141343Z 03016KT 03/01 A3027 RMK A01 T00260005  RH  086%=      5-min Rain = 0
KPG1 141344Z 04016KT 03/01 A3027 RMK A01 T00260005  RH  086%=      5-min Rain = 0
KPG1 141345Z 04017KT 03/01 A3027 RMK A01 T00260006  RH  087%=      5-min Rain = 0
KPG1 141346Z 04018KT 03/01 A3027 RMK A01 T00260006  RH  087%=      5-min Rain = 0
KPG1 141347Z 04017KT 03/01 A3027 RMK A01 T00260006  RH  086%=      5-min Rain = 0
KPG1 141348Z 04018KT 03/01 A3027 RMK A01 T00260006  RH  086%=      5-min Rain = 0
KPG1 141349Z 04018KT 03/01 A3027 RMK A01 T00270006  RH  086%=      5-min Rain = 0
KPG1 141350Z 04018KT 03/01 A3027 RMK A01 T00270006  RH  086%=      5-min Rain = 0
KPG1 141351Z 04018KT 03/01 A3027 RMK A01 T00270006  RH  086%=      5-min Rain = 0
KPG1 141352Z 04017KT 03/01 A3027 RMK A01 T00270006  RH  086%=      5-min Rain = 0
KPG1 141353Z 04018KT 03/01 A3027 RMK A01 T00270006  RH  086%=      5-min Rain = 0
KPG1 141354Z 04018KT 03/01 A3027 RMK A01 T00270006  RH  086%=      5-min Rain = 0
KPG1 141355Z 04019KT 03/01 A3027 RMK A01 T00270007  RH  087%=      5-min Rain = 0
KPG1 141356Z 04018KT 03/01 A3027 RMK A01 T00270007  RH  087%=      5-min Rain = 0
KPG1 141357Z 04017KT 03/01 A3027 RMK A01 T00270006  RH  086%=      5-min Rain = 0
KPG1 141358Z 04017KT 03/01 A3027 RMK A01 T00270006  RH  087%=      5-min Rain = 0
KPG1 141359Z 04018KT 03/01 A3027 RMK A01 T00260006  RH  087%=      5-min Rain = 0
KPG1 141400Z 04017KT 03/01 A3027 RMK A01 T00260007  RH  087%=      5-min Rain = 0
KPG1 141401Z 04017KT 03/01 A3028 RMK A01 T00260007  RH  087%=      5-min Rain = 0
KPG1 141402Z 04017KT 03/01 A3028 RMK A01 T00260007  RH  087%=      5-min Rain = 0
KPG1 141403Z 04018KT 03/01 A3028 RMK A01 T00260007  RH  087%=      5-min Rain = 0
KPG1 141404Z 04017KT 03/01 A3028 RMK A01 T00260007  RH  087%=      5-min Rain = 0
KPG1 141405Z 05014KT 03/01 A3028 RMK A01 T00260007  RH  087%=      5-min Rain = 0
KPG1 141406Z 04014KT 03/01 A3028 RMK A01 T00260007  RH  087%=      5-min Rain = 0
KPG1 141407Z 05014KT 03/01 A3028 RMK A01 T00260007  RH  087%=      5-min Rain = 0
KPG1 141408Z 04016KT 03/01 A3028 RMK A01 T00260007  RH  087%=      5-min Rain = 0
KPG1 141409Z 04014KT 03/01 A3028 RMK A01 T00260007  RH  087%=      5-min Rain = 0
KPG1 141410Z 03014KT 03/01 A3028 RMK A01 T00260007  RH  087%=      5-min Rain = 0
KPG1 141411Z 04015KT 03/01 A3028 RMK A01 T00270007  RH  087%=      5-min Rain = 0
KPG1 141412Z 04016KT 03/01 A3028 RMK A01 T00270007  RH  087%=      5-min Rain = 0
KPG1 141413Z 04017KT 03/01 A3028 RMK A01 T00270007  RH  087%=      5-min Rain = 0
KPG1 141414Z 04016KT 03/01 A3028 RMK A01 T00270007  RH  087%=      5-min Rain = 0
KPG1 141415Z 04016KT 03/01 A3028 RMK A01 T00270007  RH  087%=      5-min Rain = 0
KPG1 141416Z 04017KT 03/01 A3028 RMK A01 T00270007  RH  087%=      5-min Rain = 0
KPG1 141417Z 05017KT 03/01 A3028 RMK A01 T00270007  RH  087%=      5-min Rain = 0
KPG1 141418Z 04015KT 03/01 A3028 RMK A01 T00260007  RH  087%=      5-min Rain = 0
KPG1 141419Z 04015KT 03/01 A3028 RMK A01 T00260007  RH  087%=      5-min Rain = 0
KPG1 141420Z 04015KT 03/01 A3028 RMK A01 T00270007  RH  087%=      5-min Rain = 0
KPG1 141421Z 04015KT 03/01 A3028 RMK A01 T00270007  RH  087%=      5-min Rain = 0
KPG1 141422Z 04015KT 03/01 A3028 RMK A01 T00270007  RH  087%=      5-min Rain = 0
KPG1 141423Z 04016KT 03/01 A3028 RMK A01 T00270007  RH  087%=      5-min Rain = 0
KPG1 141424Z 04016KT 03/01 A3028 RMK A01 T00270007  RH  087%=      5-min Rain = 0
KPG1 141425Z 04016KT 03/01 A3028 RMK A01 T00260007  RH  087%=      5-min Rain = 0
KPG1 141426Z 04017KT 03/01 A3028 RMK A01 T00260007  RH  087%=      5-min Rain = 0
KPG1 141427Z 04016KT 03/01 A3028 RMK A01 T00260007  RH  087%=      5-min Rain = 0
KPG1 141428Z 04017KT 03/01 A3028 RMK A01 T00260007  RH  087%=      5-min Rain = 0
KPG1 141429Z 04014KT 03/01 A3028 RMK A01 T00260007  RH  087%=      5-min Rain = 0
KPG1 141430Z 04013KT 03/01 A3028 RMK A01 T00270007  RH  087%=      5-min Rain = 0
KPG1 141431Z 04015KT 03/01 A3028 RMK A01 T00280008  RH  087%=      5-min Rain = 0
KPG1 141432Z 04016KT 03/01 A3028 RMK A01 T00280007  RH  087%=      5-min Rain = 0
KPG1 141433Z 03016KT 03/01 A3028 RMK A01 T00280007  RH  086%=      5-min Rain = 0
KPG1 141434Z 04016KT 03/01 A3028 RMK A01 T00280007  RH  087%=      5-min Rain = 0
KPG1 141435Z 04017KT 03/01 A3028 RMK A01 T00280008  RH  087%=      5-min Rain = 0
KPG1 141436Z 04015KT 03/01 A3028 RMK A01 T00270007  RH  087%=      5-min Rain = 0
KPG1 141437Z 05017KT 03/01 A3028 RMK A01 T00270008  RH  087%=      5-min Rain = 0
KPG1 141438Z 04014KT 03/01 A3029 RMK A01 T00270007  RH  087%=      5-min Rain = 0
KPG1 141439Z 05015KT 03/01 A3029 RMK A01 T00270008  RH  087%=      5-min Rain = 0
KPG1 141440Z 04017KT 03/01 A3029 RMK A01 T00280008  RH  087%=      5-min Rain = 0
KPG1 141441Z 04016KT 03/01 A3029 RMK A01 T00280007  RH  087%=      5-min Rain = 0
KPG1 141442Z 04016KT 03/01 A3029 RMK A01 T00280008  RH  087%=      5-min Rain = 0
KPG1 141443Z 04017KT 03/01 A3029 RMK A01 T00280008  RH  086%=      5-min Rain = 0
KPG1 141444Z 03017KT 03/01 A3029 RMK A01 T00280008  RH  086%=      5-min Rain = 0
KPG1 141445Z 04017KT 03/01 A3029 RMK A01 T00280008  RH  086%=      5-min Rain = 0
KPG1 141446Z 03017KT 03/01 A3029 RMK A01 T00280008  RH  086%=      5-min Rain = 0
KPG1 141447Z 04017KT 03/01 A3029 RMK A01 T00280008  RH  087%=      5-min Rain = 0
KPG1 141448Z 04017KT 03/01 A3029 RMK A01 T00280008  RH  086%=      5-min Rain = 0
KPG1 141449Z 04017KT 03/01 A3029 RMK A01 T00280008  RH  086%=      5-min Rain = 0
KPG1 141450Z 04016KT 03/01 A3029 RMK A01 T00280008  RH  086%=      5-min Rain = 0
KPG1 141451Z 04016KT 03/01 A3029 RMK A01 T00280008  RH  086%=      5-min Rain = 0
KPG1 141452Z 04018KT 03/01 A3029 RMK A01 T00290008  RH  086%=      5-min Rain = 0
KPG1 141453Z 04016KT 03/01 A3029 RMK A01 T00290008  RH  086%=      5-min Rain = 0
KPG1 141454Z 04017KT 03/01 A3029 RMK A01 T00290008  RH  086%=      5-min Rain = 0
KPG1 141455Z 04016KT 03/01 A3029 RMK A01 T00290008  RH  086%=      5-min Rain = 0
KPG1 141456Z 04015KT 03/01 A3029 RMK A01 T00290008  RH  086%=      5-min Rain = 0
KPG1 141457Z 04015KT 03/01 A3029 RMK A01 T00290008  RH  086%=      5-min Rain = 0
KPG1 141458Z 04015KT 03/01 A3029 RMK A01 T00300008  RH  085%=      5-min Rain = 0
KPG1 141459Z 05017KT 03/01 A3029 RMK A01 T00300008  RH  085%=      5-min Rain = 0
KPG1 141500Z 04016KT 03/01 A3029 RMK A01 T00300008  RH  085%=      5-min Rain = 0
KPG1 141501Z 04017KT 03/01 A3029 RMK A01 T00300007  RH  085%=      5-min Rain = 0
KPG1 141502Z 04016KT 03/01 A3029 RMK A01 T00310008  RH  085%=      5-min Rain = 0
KPG1 141503Z 04017KT 03/01 A3029 RMK A01 T00300007  RH  085%=      5-min Rain = 0
KPG1 141504Z 04017KT 03/01 A3029 RMK A01 T00310008  RH  085%=      5-min Rain = 0
KPG1 141505Z 04017KT 03/01 A3029 RMK A01 T00310008  RH  085%=      5-min Rain = 0
KPG1 141506Z 04017KT 03/01 A3029 RMK A01 T00310008  RH  085%=      5-min Rain = 0
KPG1 141507Z 04017KT 03/01 A3029 RMK A01 T00300007  RH  085%=      5-min Rain = 0
KPG1 141508Z 04017KT 03/01 A3029 RMK A01 T00300007  RH  085%=      5-min Rain = 0
KPG1 141509Z 04017KT 03/01 A3029 RMK A01 T00300007  RH  085%=      5-min Rain = 0
KPG1 141510Z 04016KT 03/01 A303 RMK A01 T00310007  RH  085%=      5-min Rain = 0
KPG1 141511Z 04017KT 03/01 A303 RMK A01 T00310008  RH  085%=      5-min Rain = 0
KPG1 141512Z 04016KT 03/01 A3029 RMK A01 T00320008  RH  084%=      5-min Rain = 0
KPG1 141513Z 04016KT 03/01 A3029 RMK A01 T00320008  RH  084%=      5-min Rain = 0
KPG1 141514Z 04018KT 03/01 A3029 RMK A01 T00320007  RH  084%=      5-min Rain = 0
KPG1 141515Z 04016KT 03/01 A3029 RMK A01 T00320007  RH  084%=      5-min Rain = 0
KPG1 141516Z 04016KT 03/01 A3029 RMK A01 T00320007  RH  084%=      5-min Rain = 0
KPG1 141517Z 04016KT 03/01 A303 RMK A01 T00320007  RH  084%=      5-min Rain = 0
KPG1 141518Z 04015KT 03/01 A303 RMK A01 T00320008  RH  084%=      5-min Rain = 0
KPG1 141519Z 04016KT 03/01 A303 RMK A01 T00330007  RH  083%=      5-min Rain = 0
KPG1 141520Z 04016KT 03/01 A303 RMK A01 T00320006  RH  083%=      5-min Rain = 0
KPG1 141521Z 04014KT 03/01 A303 RMK A01 T00320006  RH  083%=      5-min Rain = 0
KPG1 141522Z 04015KT 03/01 A303 RMK A01 T00320007  RH  084%=      5-min Rain = 0
KPG1 141523Z 04015KT 03/01 A303 RMK A01 T00320006  RH  083%=      5-min Rain = 0
KPG1 141524Z 04017KT 03/01 A303 RMK A01 T00320006  RH  083%=      5-min Rain = 0
KPG1 141525Z 04015KT 03/01 A303 RMK A01 T00320006  RH  083%=      5-min Rain = 0
KPG1 141526Z 04013KT 03/01 A303 RMK A01 T00320007  RH  083%=      5-min Rain = 0
KPG1 141527Z 04014KT 03/01 A303 RMK A01 T00330007  RH  083%=      5-min Rain = 0
KPG1 141528Z 04013KT 04/01 A303 RMK A01 T00350008  RH  083%=      5-min Rain = 0
KPG1 141529Z 04014KT 04/01 A303 RMK A01 T00350008  RH  082%=      5-min Rain = 0
KPG1 141530Z 04015KT 04/01 A303 RMK A01 T00360008  RH  082%=      5-min Rain = 0
KPG1 141531Z 04016KT 04/01 A303 RMK A01 T00370007  RH  081%=      5-min Rain = 0
KPG1 141532Z 04015KT 04/01 A303 RMK A01 T00370007  RH  081%=      5-min Rain = 0
KPG1 141533Z 04014KT 04/01 A303 RMK A01 T00360006  RH  081%=      5-min Rain = 0
KPG1 141534Z 05013KT 04/01 A303 RMK A01 T00380008  RH  081%=      5-min Rain = 0
KPG1 141535Z 04012KT 04/01 A303 RMK A01 T00400009  RH  080%=      5-min Rain = 0
KPG1 141536Z 05013KT 04/01 A303 RMK A01 T00430009  RH  079%=      5-min Rain = 0
KPG1 141537Z 05014KT 04/01 A303 RMK A01 T00430008  RH  078%=      5-min Rain = 0
KPG1 141538Z 04014KT 04/01 A303 RMK A01 T00420006  RH  078%=      5-min Rain = 0
KPG1 141539Z 04013KT 04/01 A303 RMK A01 T00400005  RH  078%=      5-min Rain = 0
KPG1 141540Z 04012KT 04/01 A303 RMK A01 T00390006  RH  079%=      5-min Rain = 0
KPG1 141541Z 05011KT 04/01 A303 RMK A01 T00410007  RH  079%=      5-min Rain = 0
KPG1 141542Z 05013KT 04/01 A303 RMK A01 T00410007  RH  078%=      5-min Rain = 0
KPG1 141543Z 03013KT 04/01 A303 RMK A01 T00410007  RH  078%=      5-min Rain = 0
KPG1 141544Z 04013KT 04/01 A303 RMK A01 T00420006  RH  078%=      5-min Rain = 0
KPG1 141545Z 03012KT 04/01 A303 RMK A01 T00420007  RH  078%=      5-min Rain = 0
KPG1 141546Z 04011KT 04/01 A303 RMK A01 T00440007  RH  077%=      5-min Rain = 0
KPG1 141547Z 04012KT 05/01 A303 RMK A01 T00450008  RH  077%=      5-min Rain = 0
KPG1 141548Z 04013KT 04/01 A303 RMK A01 T00440007  RH  076%=      5-min Rain = 0
KPG1 141549Z 04012KT 04/01 A303 RMK A01 T00440007  RH  077%=      5-min Rain = 0
KPG1 141550Z 04011KT 05/01 A303 RMK A01 T00450008  RH  077%=      5-min Rain = 0
KPG1 141551Z 04011KT 05/01 A303 RMK A01 T00470008  RH  076%=      5-min Rain = 0
KPG1 141552Z 04012KT 05/01 A303 RMK A01 T00460007  RH  076%=      5-min Rain = 0
KPG1 141553Z 05011KT 05/01 A303 RMK A01 T00470008  RH  076%=      5-min Rain = 0
KPG1 141554Z 04012KT 05/01 A303 RMK A01 T00480008  RH  075%=      5-min Rain = 0
KPG1 141555Z 04010KT 05/01 A303 RMK A01 T00480008  RH  075%=      5-min Rain = 0
KPG1 141556Z 03011KT 05/01 A303 RMK A01 T00500009  RH  075%=      5-min Rain = 0
KPG1 141557Z 03012KT 05/01 A303 RMK A01 T00510008  RH  074%=      5-min Rain = 0
KPG1 141558Z 03009KT 05/01 A303 RMK A01 T00500007  RH  074%=      5-min Rain = 0
KPG1 141559Z 04013KT 05/01 A303 RMK A01 T00500008  RH  074%=      5-min Rain = 0
KPG1 141600Z 05012KT 05/01 A303 RMK A01 T00480006  RH  074%=      5-min Rain = 0
KPG1 141601Z 05011KT 05/01 A303 RMK A01 T00450005  RH  075%=      5-min Rain = 0
KPG1 141602Z 05011KT 05/01 A303 RMK A01 T00450007  RH  076%=      5-min Rain = 0
KPG1 141603Z 04011KT 05/01 A303 RMK A01 T00480009  RH  076%=      5-min Rain = 0
KPG1 141604Z 04012KT 05/01 A303 RMK A01 T00510010  RH  075%=      5-min Rain = 0
KPG1 141605Z 04012KT 05/01 A303 RMK A01 T00520009  RH  074%=      5-min Rain = 0
KPG1 141606Z 04013KT 05/01 A303 RMK A01 T00510008  RH  074%=      5-min Rain = 0
KPG1 141607Z 04010KT 05/01 A303 RMK A01 T00480006  RH  074%=      5-min Rain = 0
KPG1 141608Z 05011KT 05/01 A303 RMK A01 T00470007  RH  075%=      5-min Rain = 0
KPG1 141609Z 05009KT 05/01 A303 RMK A01 T00480009  RH  075%=      5-min Rain = 0
KPG1 141610Z 04010KT 05/01 A303 RMK A01 T00530011  RH  074%=      5-min Rain = 0
KPG1 141611Z 05012KT 06/01 A303 RMK A01 T00560010  RH  073%=      5-min Rain = 0
KPG1 141612Z 06012KT 05/01 A303 RMK A01 T00530007  RH  072%=      5-min Rain = 0
KPG1 141613Z 04012KT 05/01 A303 RMK A01 T00510007  RH  073%=      5-min Rain = 0
KPG1 141614Z 05010KT 05/01 A303 RMK A01 T00510007  RH  073%=      5-min Rain = 0
KPG1 141615Z 07013KT 05/01 A303 RMK A01 T00530009  RH  073%=      5-min Rain = 0
KPG1 141616Z 06014KT 05/01 A303 RMK A01 T00540008  RH  072%=      5-min Rain = 0
KPG1 141617Z 06012KT 05/01 A303 RMK A01 T00520007  RH  072%=      5-min Rain = 0
KPG1 141618Z 06014KT 05/01 A303 RMK A01 T00510007  RH  073%=      5-min Rain = 0
KPG1 141619Z 05012KT 05/01 A303 RMK A01 T00510006  RH  073%=      5-min Rain = 0
KPG1 141620Z 07015KT 05/01 A3029 RMK A01 T00510008  RH  074%=      5-min Rain = 0
KPG1 141621Z 06013KT 05/01 A3029 RMK A01 T00520007  RH  073%=      5-min Rain = 0
KPG1 141622Z 05012KT 05/01 A3029 RMK A01 T00520007  RH  073%=      5-min Rain = 0
KPG1 141623Z 06013KT 05/01 A3029 RMK A01 T00520008  RH  073%=      5-min Rain = 0
KPG1 141624Z 05012KT 05/01 A3029 RMK A01 T00530008  RH  073%=      5-min Rain = 0
KPG1 141625Z 04013KT 06/01 A3029 RMK A01 T00550009  RH  072%=      5-min Rain = 0
KPG1 141626Z 04012KT 06/01 A3029 RMK A01 T00550007  RH  071%=      5-min Rain = 0
KPG1 141627Z 04012KT 05/01 A3029 RMK A01 T00530007  RH  072%=      5-min Rain = 0
KPG1 141628Z 03012KT 06/01 A3029 RMK A01 T00550009  RH  072%=      5-min Rain = 0
KPG1 141629Z 04013KT 05/01 A3029 RMK A01 T00540007  RH  071%=      5-min Rain = 0
KPG1 141630Z 04012KT 05/01 A3029 RMK A01 T00530007  RH  072%=      5-min Rain = 0
KPG1 141631Z 04013KT 05/01 A3029 RMK A01 T00540008  RH  072%=      5-min Rain = 0
KPG1 141632Z 05010KT 05/01 A3029 RMK A01 T00530007  RH  072%=      5-min Rain = 0
KPG1 141633Z 05012KT 06/01 A3029 RMK A01 T00550009  RH  072%=      5-min Rain = 0
KPG1 141634Z 05012KT 06/01 A3029 RMK A01 T00550007  RH  071%=      5-min Rain = 0
KPG1 141635Z 06014KT 06/01 A3029 RMK A01 T00560008  RH  071%=      5-min Rain = 0
KPG1 141636Z 06011KT 06/01 A3029 RMK A01 T00560007  RH  071%=      5-min Rain = 0
KPG1 141637Z 06014KT 06/01 A3029 RMK A01 T00570008  RH  071%=      5-min Rain = 0
KPG1 141638Z 06014KT 06/01 A3029 RMK A01 T00560006  RH  070%=      5-min Rain = 0
KPG1 141639Z 06013KT 06/01 A3029 RMK A01 T00550007  RH  071%=      5-min Rain = 0
KPG1 141640Z 06011KT 06/01 A3029 RMK A01 T00570009  RH  071%=      5-min Rain = 0
KPG1 141641Z 07015KT 06/01 A3029 RMK A01 T00590008  RH  070%=      5-min Rain = 0
KPG1 141642Z 06013KT 06/01 A3029 RMK A01 T00560006  RH  070%=      5-min Rain = 0
KPG1 141643Z 06013KT 06/01 A3029 RMK A01 T00570008  RH  071%=      5-min Rain = 0
KPG1 141644Z 07015KT 06/01 A3029 RMK A01 T00570007  RH  070%=      5-min Rain = 0
KPG1 141645Z 07013KT 06/01 A3029 RMK A01 T00550006  RH  071%=      5-min Rain = 0
KPG1 141646Z 06012KT 05/01 A3029 RMK A01 T00540007  RH  071%=      5-min Rain = 0
KPG1 141647Z 04012KT 06/01 A3029 RMK A01 T00590010  RH  071%=      5-min Rain = 0
KPG1 141648Z 05011KT 06/01 A3029 RMK A01 T00590008  RH  070%=      5-min Rain = 0
KPG1 141649Z 05010KT 06/01 A3029 RMK A01 T00610009  RH  070%=      5-min Rain = 0
KPG1 141650Z 06013KT 06/01 A3029 RMK A01 T00620009  RH  069%=      5-min Rain = 0
KPG1 141651Z 05014KT 06/01 A3029 RMK A01 T00620008  RH  068%=      5-min Rain = 0
KPG1 141652Z 03014KT 06/01 A3029 RMK A01 T00590006  RH  069%=      5-min Rain = 0
KPG1 141653Z 03015KT 06/01 A3029 RMK A01 T00570006  RH  070%=      5-min Rain = 0
KPG1 141654Z 03014KT 06/01 A3029 RMK A01 T00570007  RH  070%=      5-min Rain = 0
KPG1 141655Z 04012KT 06/01 A3029 RMK A01 T00580008  RH  070%=      5-min Rain = 0
KPG1 141656Z 05012KT 06/01 A3029 RMK A01 T00600008  RH  069%=      5-min Rain = 0
KPG1 141657Z 04013KT 06/01 A3029 RMK A01 T00580007  RH  069%=      5-min Rain = 0
KPG1 141658Z 04013KT 06/01 A3029 RMK A01 T00580007  RH  070%=      5-min Rain = 0
KPG1 141659Z 05015KT 06/01 A3029 RMK A01 T00600008  RH  069%=      5-min Rain = 0
KPG1 141700Z 05013KT 06/01 A3029 RMK A01 T00590006  RH  069%=      5-min Rain = 0
KPG1 141701Z 05011KT 06/01 A3029 RMK A01 T00570006  RH  070%=      5-min Rain = 0
KPG1 141702Z 04014KT 06/01 A3029 RMK A01 T00570007  RH  070%=      5-min Rain = 0
KPG1 141703Z 05013KT 06/01 A3029 RMK A01 T00560006  RH  070%=      5-min Rain = 0
KPG1 141704Z 04014KT 06/01 A3029 RMK A01 T00580009  RH  070%=      5-min Rain = 0
KPG1 141705Z 03011KT 06/01 A3029 RMK A01 T00600008  RH  069%=      5-min Rain = 0
KPG1 141706Z 03013KT 06/01 A3029 RMK A01 T00640011  RH  069%=      5-min Rain = 0
KPG1 141707Z 04012KT 07/01 A3029 RMK A01 T00650009  RH  067%=      5-min Rain = 0
KPG1 141708Z 04014KT 06/01 A3029 RMK A01 T00640009  RH  068%=      5-min Rain = 0
KPG1 141709Z 05012KT 06/01 A3029 RMK A01 T00620006  RH  068%=      5-min Rain = 0
KPG1 141710Z 04010KT 06/01 A3029 RMK A01 T00590006  RH  069%=      5-min Rain = 0
KPG1 141711Z 03014KT 06/01 A3029 RMK A01 T00610009  RH  069%=      5-min Rain = 0
KPG1 141712Z 03014KT 06/01 A3029 RMK A01 T00610007  RH  068%=      5-min Rain = 0
KPG1 141713Z 04014KT 06/01 A3029 RMK A01 T00620008  RH  068%=      5-min Rain = 0
KPG1 141714Z 03014KT 06/01 A3028 RMK A01 T00620008  RH  068%=      5-min Rain = 0
KPG1 141715Z 03013KT 06/01 A3028 RMK A01 T00630008  RH  068%=      5-min Rain = 0
KPG1 141716Z 03013KT 06/01 A3028 RMK A01 T00630008  RH  068%=      5-min Rain = 0
KPG1 141717Z 04013KT 06/01 A3028 RMK A01 T00640009  RH  068%=      5-min Rain = 0
KPG1 141718Z 04013KT 07/01 A3029 RMK A01 T00660009  RH  067%=      5-min Rain = 0
KPG1 141719Z 04011KT 07/01 A3029 RMK A01 T00650008  RH  067%=      5-min Rain = 0
KPG1 141720Z 05011KT 07/01 A3029 RMK A01 T00690012  RH  067%=      5-min Rain = 0
KPG1 141721Z 03010KT 07/01 A3029 RMK A01 T00720012  RH  065%=      5-min Rain = 0
KPG1 141722Z 04012KT 07/01 A3029 RMK A01 T00730010  RH  065%=      5-min Rain = 0
KPG1 141723Z 03014KT 07/01 A3029 RMK A01 T00710008  RH  065%=      5-min Rain = 0
KPG1 141724Z 04013KT 07/01 A3029 RMK A01 T00690008  RH  065%=      5-min Rain = 0
KPG1 141725Z 04013KT 07/01 A3028 RMK A01 T00670008  RH  066%=      5-min Rain = 0
KPG1 141726Z 04010KT 07/01 A3028 RMK A01 T00650007  RH  066%=      5-min Rain = 0
KPG1 141727Z 04010KT 07/01 A3028 RMK A01 T00660009  RH  067%=      5-min Rain = 0
KPG1 141728Z 04014KT 07/01 A3028 RMK A01 T00680009  RH  066%=      5-min Rain = 0
KPG1 141729Z 04013KT 07/01 A3028 RMK A01 T00680009  RH  066%=      5-min Rain = 0
KPG1 141730Z 04012KT 07/01 A3028 RMK A01 T00680008  RH  066%=      5-min Rain = 0
KPG1 141731Z 03012KT 07/01 A3028 RMK A01 T00700009  RH  066%=      5-min Rain = 0
KPG1 141732Z 06012KT 07/01 A3028 RMK A01 T00710009  RH  065%=      5-min Rain = 0
KPG1 141733Z 04009KT 07/01 A3028 RMK A01 T00690008  RH  065%=      5-min Rain = 0
KPG1 141734Z 05014KT 07/01 A3028 RMK A01 T00690009  RH  065%=      5-min Rain = 0
KPG1 141735Z 05012KT 07/01 A3028 RMK A01 T00690008  RH  065%=      5-min Rain = 0
KPG1 141736Z 05010KT 07/01 A3028 RMK A01 T00680008  RH  066%=      5-min Rain = 0
KPG1 141737Z 03009KT 07/01 A3028 RMK A01 T00700010  RH  065%=      5-min Rain = 0
KPG1 141738Z 04011KT 08/01 A3028 RMK A01 T00750012  RH  064%=      5-min Rain = 0
KPG1 141739Z 03011KT 08/01 A3028 RMK A01 T00760011  RH  063%=      5-min Rain = 0
KPG1 141740Z 04013KT 08/01 A3028 RMK A01 T00770010  RH  063%=      5-min Rain = 0
KPG1 141741Z 04013KT 08/01 A3028 RMK A01 T00760009  RH  063%=      5-min Rain = 0
KPG1 141742Z 04012KT 08/01 A3028 RMK A01 T00750008  RH  062%=      5-min Rain = 0
KPG1 141743Z 04010KT 07/01 A3028 RMK A01 T00740008  RH  063%=      5-min Rain = 0
KPG1 141744Z 04011KT 08/01 A3028 RMK A01 T00760011  RH  063%=      5-min Rain = 0
KPG1 141745Z 04013KT 08/01 A3027 RMK A01 T00790011  RH  062%=      5-min Rain = 0
KPG1 141746Z 03011KT 08/01 A3027 RMK A01 T00780010  RH  062%=      5-min Rain = 0
KPG1 141747Z 04011G17KT 08/01 A3027 RMK A01 T00760009  RH  062%=      5-min Rain = 0
KPG1 141748Z 04014KT 08/01 A3027 RMK A01 T00770010  RH  062%=      5-min Rain = 0
KPG1 141749Z 04014KT 08/01 A3027 RMK A01 T00770008  RH  062%=      5-min Rain = 0
KPG1 141750Z 04012KT 07/01 A3027 RMK A01 T00740007  RH  062%=      5-min Rain = 0
KPG1 141751Z 03013KT 08/01 A3027 RMK A01 T00750009  RH  063%=      5-min Rain = 0
KPG1 141752Z 04013KT 08/01 A3027 RMK A01 T00770009  RH  062%=      5-min Rain = 0
KPG1 141753Z 02012KT 08/01 A3027 RMK A01 T00760008  RH  062%=      5-min Rain = 0
KPG1 141754Z 02009KT 08/01 A3027 RMK A01 T00770010  RH  063%=      5-min Rain = 0
KPG1 141755Z 04010KT 08/01 A3027 RMK A01 T00800011  RH  062%=      5-min Rain = 0
KPG1 141756Z 04014KT 08/01 A3027 RMK A01 T00810010  RH  061%=      5-min Rain = 0
KPG1 141757Z 04013KT 08/01 A3027 RMK A01 T00820010  RH  060%=      5-min Rain = 0
KPG1 141758Z 05012KT 08/01 A3027 RMK A01 T00790007  RH  060%=      5-min Rain = 0
KPG1 141759Z 04013KT 08/01 A3027 RMK A01 T00750007  RH  062%=      5-min Rain = 0
KPG1 141800Z 05012KT 08/01 A3027 RMK A01 T00750008  RH  062%=      5-min Rain = 0
KPG1 141801Z 04013KT 08/01 A3027 RMK A01 T00760008  RH  062%=      5-min Rain = 0
KPG1 141802Z 04013KT 08/01 A3027 RMK A01 T00790010  RH  062%=      5-min Rain = 0
KPG1 141803Z 03012KT 08/01 A3027 RMK A01 T00790009  RH  061%=      5-min Rain = 0
KPG1 141804Z 02012KT 08/01 A3027 RMK A01 T00780009  RH  062%=      5-min Rain = 0
KPG1 141805Z 03011KT 08/01 A3027 RMK A01 T00790009  RH  061%=      5-min Rain = 0
KPG1 141806Z 03013KT 08/01 A3027 RMK A01 T00800009  RH  061%=      5-min Rain = 0
KPG1 141807Z 03012KT 08/01 A3027 RMK A01 T00800009  RH  061%=      5-min Rain = 0
KPG1 141808Z 03011KT 08/01 A3027 RMK A01 T00800008  RH  060%=      5-min Rain = 0
KPG1 141809Z 03011KT 08/01 A3027 RMK A01 T00790008  RH  061%=      5-min Rain = 0
KPG1 141810Z 04013KT 08/01 A3026 RMK A01 T00810010  RH  060%=      5-min Rain = 0
KPG1 141811Z 06010KT 08/01 A3027 RMK A01 T00810008  RH  060%=      5-min Rain = 0
KPG1 141812Z 04011KT 08/01 A3027 RMK A01 T00800008  RH  060%=      5-min Rain = 0
KPG1 141813Z 04011KT 08/01 A3026 RMK A01 T00800009  RH  061%=      5-min Rain = 0
KPG1 141814Z 03010KT 08/01 A3026 RMK A01 T00830010  RH  060%=      5-min Rain = 0
KPG1 141815Z 04011KT 08/01 A3026 RMK A01 T00830008  RH  059%=      5-min Rain = 0
KPG1 141816Z 03011KT 09/01 A3026 RMK A01 T00850011  RH  060%=      5-min Rain = 0
KPG1 141817Z 02013KT 09/01 A3026 RMK A01 T00860009  RH  058%=      5-min Rain = 0
KPG1 141818Z 02010KT 08/01 A3026 RMK A01 T00840008  RH  059%=      5-min Rain = 0
KPG1 141819Z 03011KT 08/01 A3026 RMK A01 T00830008  RH  059%=      5-min Rain = 0
KPG1 141820Z 04011KT 08/01 A3026 RMK A01 T00830008  RH  059%=      5-min Rain = 0
KPG1 141821Z 02011KT 09/01 A3026 RMK A01 T00860010  RH  059%=      5-min Rain = 0
KPG1 141822Z 05011KT 09/01 A3026 RMK A01 T00910012  RH  058%=      5-min Rain = 0
KPG1 141823Z 04011KT 09/01 A3026 RMK A01 T00900009  RH  057%=      5-min Rain = 0
KPG1 141824Z 04012KT 09/01 A3026 RMK A01 T00890008  RH  057%=      5-min Rain = 0
KPG1 141825Z 04010KT 09/01 A3026 RMK A01 T00870007  RH  057%=      5-min Rain = 0
KPG1 141826Z 04011KT 09/01 A3026 RMK A01 T00880010  RH  058%=      5-min Rain = 0
KPG1 141827Z 04012KT 09/01 A3025 RMK A01 T00880008  RH  057%=      5-min Rain = 0
KPG1 141828Z 05009KT 09/01 A3025 RMK A01 T00850007  RH  058%=      5-min Rain = 0
KPG1 141829Z 05010KT 09/01 A3025 RMK A01 T00860009  RH  058%=      5-min Rain = 0
KPG1 141830Z 07012KT 09/01 A3025 RMK A01 T00880008  RH  057%=      5-min Rain = 0
KPG1 141831Z 05011KT 09/01 A3025 RMK A01 T00880008  RH  057%=      5-min Rain = 0
KPG1 141832Z 04011KT 09/01 A3025 RMK A01 T00900009  RH  057%=      5-min Rain = 0
KPG1 141833Z 03009KT 09/01 A3025 RMK A01 T00900010  RH  057%=      5-min Rain = 0
KPG1 141834Z 04010KT 09/01 A3025 RMK A01 T00900009  RH  057%=      5-min Rain = 0
KPG1 141835Z 03009KT 09/01 A3025 RMK A01 T00900009  RH  057%=      5-min Rain = 0
KPG1 141836Z 03011KT 09/01 A3025 RMK A01 T00930010  RH  056%=      5-min Rain = 0
KPG1 141837Z 04011KT 09/01 A3025 RMK A01 T00930009  RH  056%=      5-min Rain = 0
KPG1 141838Z 03010KT 09/01 A3025 RMK A01 T00930009  RH  056%=      5-min Rain = 0
KPG1 141839Z 04010KT 09/01 A3025 RMK A01 T00920008  RH  056%=      5-min Rain = 0
KPG1 141840Z 03009KT 09/01 A3025 RMK A01 T00900006  RH  056%=      5-min Rain = 0
KPG1 141841Z 03010KT 09/01 A3025 RMK A01 T00890007  RH  056%=      5-min Rain = 0
KPG1 141842Z 03013KT 09/01 A3025 RMK A01 T00910010  RH  057%=      5-min Rain = 0
KPG1 141843Z 03011KT 09/01 A3025 RMK A01 T00940010  RH  056%=      5-min Rain = 0
KPG1 141844Z 04011KT 09/01 A3025 RMK A01 T00940009  RH  055%=      5-min Rain = 0
KPG1 141845Z 04007KT 09/01 A3025 RMK A01 T00930008  RH  055%=      5-min Rain = 0
KPG1 141846Z 03010KT 09/01 A3025 RMK A01 T00910008  RH  056%=      5-min Rain = 0
KPG1 141847Z 03009G14KT 09/01 A3024 RMK A01 T00920008  RH  056%=      5-min Rain = 0
KPG1 141848Z 03009KT 09/01 A3024 RMK A01 T00920009  RH  056%=      5-min Rain = 0
KPG1 141849Z 03010KT 09/01 A3024 RMK A01 T00940010  RH  056%=      5-min Rain = 0
KPG1 141850Z 06010KT 10/01 A3024 RMK A01 T00950009  RH  055%=      5-min Rain = 0
KPG1 141851Z 07011KT 10/01 A3024 RMK A01 T00980011  RH  055%=      5-min Rain = 0
KPG1 141852Z 06009KT 10/01 A3024 RMK A01 T00990010  RH  054%=      5-min Rain = 0
KPG1 141853Z 04010KT 10/01 A3024 RMK A01 T01000010  RH  054%=      5-min Rain = 0
KPG1 141854Z 02011KT 10/01 A3024 RMK A01 T01000010  RH  053%=      5-min Rain = 0
KPG1 141855Z 02010KT 10/01 A3024 RMK A01 T00980008  RH  053%=      5-min Rain = 0
KPG1 141856Z 01010KT 10/01 A3024 RMK A01 T00990009  RH  054%=      5-min Rain = 0
KPG1 141857Z 04010KT 10/01 A3024 RMK A01 T01010010  RH  053%=      5-min Rain = 0
KPG1 141858Z 05012KT 10/01 A3024 RMK A01 T01010008  RH  052%=      5-min Rain = 0
KPG1 141859Z 04011KT 10/01 A3024 RMK A01 T00980007  RH  053%=      5-min Rain = 0
KPG1 141900Z 04010KT 10/01 A3024 RMK A01 T00990008  RH  053%=      5-min Rain = 0
KPG1 141901Z 04008KT 10/01 A3024 RMK A01 T00990007  RH  053%=      5-min Rain = 0
KPG1 141902Z 03010KT 10/01 A3024 RMK A01 T00980007  RH  053%=      5-min Rain = 0
KPG1 141903Z 03012KT 10/01 A3024 RMK A01 T00980007  RH  053%=      5-min Rain = 0
KPG1 141904Z 04013KT 10/01 A3024 RMK A01 T01000008  RH  053%=      5-min Rain = 0
KPG1 141905Z 04012KT 10/01 A3023 RMK A01 T01010008  RH  052%=      5-min Rain = 0
KPG1 141906Z 04010KT 10/01 A3024 RMK A01 T01000007  RH  052%=      5-min Rain = 0
KPG1 141907Z 04009KT 10/01 A3023 RMK A01 T00990008  RH  053%=      5-min Rain = 0
KPG1 141908Z 03010KT 10/01 A3023 RMK A01 T00990007  RH  053%=      5-min Rain = 0
KPG1 141909Z 03009KT 10/01 A3023 RMK A01 T01000009  RH  053%=      5-min Rain = 0
KPG1 141910Z 05010KT 10/01 A3023 RMK A01 T01040011  RH  052%=      5-min Rain = 0
KPG1 141911Z 03010KT 11/01 A3023 RMK A01 T01050010  RH  052%=      5-min Rain = 0
KPG1 141912Z 02012KT 11/01 A3023 RMK A01 T01070009  RH  051%=      5-min Rain = 0
KPG1 141913Z 03009KT 11/01 A3023 RMK A01 T01050007  RH  051%=      5-min Rain = 0
KPG1 141914Z 04010KT 11/01 A3023 RMK A01 T01080009  RH  051%=      5-min Rain = 0
KPG1 141915Z 05011KT 11/01 A3023 RMK A01 T01090008  RH  050%=      5-min Rain = 0
KPG1 141916Z 06009KT 11/01 A3023 RMK A01 T01060007  RH  050%=      5-min Rain = 0
KPG1 141917Z 04008KT 11/01 A3023 RMK A01 T01050007  RH  051%=      5-min Rain = 0
KPG1 141918Z 05008KT 11/01 A3023 RMK A01 T01070009  RH  051%=      5-min Rain = 0
KPG1 141919Z 07008KT 11/01 A3023 RMK A01 T01100010  RH  050%=      5-min Rain = 0
KPG1 141920Z 05009KT 11/01 A3022 RMK A01 T01100009  RH  050%=      5-min Rain = 0
KPG1 141921Z 04011KT 11/01 A3022 RMK A01 T01110009  RH  049%=      5-min Rain = 0
KPG1 141922Z 04010KT 11/01 A3022 RMK A01 T01090007  RH  049%=      5-min Rain = 0
KPG1 141923Z 04008KT 11/01 A3022 RMK A01 T01070007  RH  050%=      5-min Rain = 0
KPG1 141924Z 02009KT 11/01 A3022 RMK A01 T01080008  RH  050%=      5-min Rain = 0
KPG1 141925Z 03007KT 11/01 A3022 RMK A01 T01090009  RH  050%=      5-min Rain = 0
KPG1 141926Z 03010KT 11/01 A3022 RMK A01 T01110009  RH  049%=      5-min Rain = 0
KPG1 141927Z 02010KT 11/01 A3022 RMK A01 T01100007  RH  049%=      5-min Rain = 0
KPG1 141928Z 03009KT 11/01 A3022 RMK A01 T01100007  RH  049%=      5-min Rain = 0
KPG1 141929Z 04009KT 11/01 A3022 RMK A01 T01090007  RH  049%=      5-min Rain = 0
KPG1 141930Z 05008KT 11/01 A3022 RMK A01 T01100007  RH  049%=      5-min Rain = 0
KPG1 141931Z 06011KT 11/01 A3022 RMK A01 T01100006  RH  049%=      5-min Rain = 0
KPG1 141932Z 05009KT 11/00 A3022 RMK A01 T01070004  RH  049%=      5-min Rain = 0
KPG1 141933Z 06010KT 11/01 A3022 RMK A01 T01090007  RH  049%=      5-min Rain = 0
KPG1 141934Z 07012KT 11/01 A3022 RMK A01 T01120007  RH  048%=      5-min Rain = 0
KPG1 141935Z 07011KT 11/00 A3022 RMK A01 T01090004  RH  048%=      5-min Rain = 0
KPG1 141936Z 07009KT 11/00 A3021 RMK A01 T01060004  RH  049%=      5-min Rain = 0
KPG1 141937Z 07011KT 11/00 A3021 RMK A01 T01070004  RH  049%=      5-min Rain = 0
KPG1 141938Z 07011KT 11/00 A3021 RMK A01 T01050003  RH  049%=      5-min Rain = 0
KPG1 141939Z 06009KT 11/01 A3021 RMK A01 T01070005  RH  049%=      5-min Rain = 0
KPG1 141940Z 04007KT 11/01 A3021 RMK A01 T01130008  RH  048%=      5-min Rain = 0
KPG1 141941Z 05008KT 12/01 A3021 RMK A01 T01170008  RH  047%=      5-min Rain = 0
KPG1 141942Z 06009KT 12/01 A3021 RMK A01 T01190008  RH  046%=      5-min Rain = 0
KPG1 141943Z 04010KT 12/01 A3021 RMK A01 T01200007  RH  046%=      5-min Rain = 0
KPG1 141944Z 03009KT 12/00 A3021 RMK A01 T01160004  RH  046%=      5-min Rain = 0
KPG1 141945Z 02012KT 12/01 A3021 RMK A01 T01150006  RH  047%=      5-min Rain = 0
KPG1 141946Z 03011KT 12/01 A3021 RMK A01 T01150005  RH  047%=      5-min Rain = 0
KPG1 141947Z 02010KT 11/00 A3021 RMK A01 T01120003  RH  047%=      5-min Rain = 0
KPG1 141948Z 02009KT 11/00 A3021 RMK A01 T01110004  RH  048%=      5-min Rain = 0
KPG1 141949Z 04008KT 12/01 A3021 RMK A01 T01150007  RH  047%=      5-min Rain = 0
KPG1 141950Z 04007KT 12/01 A3021 RMK A01 T01180008  RH  047%=      5-min Rain = 0
KPG1 141951Z 06009KT 12/01 A3021 RMK A01 T01220010  RH  046%=      5-min Rain = 0
KPG1 141952Z 05007KT 12/01 A302 RMK A01 T01200006  RH  046%=      5-min Rain = 0
KPG1 141953Z 04011KT 12/01 A302 RMK A01 T01170005  RH  046%=      5-min Rain = 0
KPG1 141954Z 03008KT 11/00 A302 RMK A01 T01140003  RH  047%=      5-min Rain = 0
KPG1 141955Z 03007KT 11/01 A302 RMK A01 T01120005  RH  047%=      5-min Rain = 0
KPG1 141956Z 03011KT 12/01 A302 RMK A01 T01160007  RH  047%=      5-min Rain = 0
KPG1 141957Z 03010KT 12/01 A302 RMK A01 T01160005  RH  046%=      5-min Rain = 0
KPG1 141958Z 06008KT 11/00 A302 RMK A01 T01140003  RH  047%=      5-min Rain = 0
KPG1 141959Z 06006KT 11/00 A302 RMK A01 T01120003  RH  047%=      5-min Rain = 0
KPG1 142000Z 07009KT 11/01 A302 RMK A01 T01140006  RH  047%=      5-min Rain = 0
KPG1 142001Z 04009KT 12/01 A302 RMK A01 T01190007  RH  046%=      5-min Rain = 0
KPG1 142002Z 05008KT 12/00 A302 RMK A01 T01150002  RH  046%=      5-min Rain = 0
KPG1 142003Z 07010KT 11/00 A302 RMK A01 T01140003  RH  047%=      5-min Rain = 0
KPG1 142004Z 07009KT 11/00 A302 RMK A01 T01140003  RH  046%=      5-min Rain = 0
KPG1 142005Z 07011KT 11/00 A3019 RMK A01 T01130003  RH  047%=      5-min Rain = 0
KPG1 142006Z 07013KT 11/00 A3019 RMK A01 T01140003  RH  047%=      5-min Rain = 0
KPG1 142007Z 07011KT 11/00 A3019 RMK A01 T01140004  RH  047%=      5-min Rain = 0
KPG1 142008Z 05009KT 12/00 A3019 RMK A01 T01150004  RH  046%=      5-min Rain = 0
KPG1 142009Z 05008KT 11/00 A3019 RMK A01 T01130002  RH  046%=      5-min Rain = 0
KPG1 142010Z 05010KT 11/00 A3019 RMK A01 T01140004  RH  047%=      5-min Rain = 0
KPG1 142011Z 06011KT 12/01 A3019 RMK A01 T01170005  RH  046%=      5-min Rain = 0
KPG1 142012Z 06009KT 12/01 A3019 RMK A01 T01190005  RH  046%=      5-min Rain = 0
KPG1 142013Z 07010KT 12/01 A3019 RMK A01 T01190005  RH  046%=      5-min Rain = 0
KPG1 142014Z 07010KT 12/01 A3019 RMK A01 T01190005  RH  046%=      5-min Rain = 0
KPG1 142015Z 08010KT 12/01 A3019 RMK A01 T01190005  RH  045%=      5-min Rain = 0
KPG1 142016Z 07011KT 12/01 A3018 RMK A01 T01200005  RH  045%=      5-min Rain = 0
KPG1 142017Z 07009KT 12/01 A3018 RMK A01 T01190005  RH  046%=      5-min Rain = 0
KPG1 142018Z 05011KT 12/01 A3018 RMK A01 T01190006  RH  046%=      5-min Rain = 0
KPG1 142019Z 05011KT 12/01 A3018 RMK A01 T01180007  RH  046%=      5-min Rain = 0
KPG1 142020Z 05009KT 12/01 A3018 RMK A01 T01180006  RH  046%=      5-min Rain = 0
KPG1 142021Z 02011KT 12/01 A3018 RMK A01 T01180007  RH  047%=      5-min Rain = 0
KPG1 142022Z 03014KT 12/01 A3018 RMK A01 T01180007  RH  046%=      5-min Rain = 0
KPG1 142023Z 03010KT 12/01 A3018 RMK A01 T01170006  RH  047%=      5-min Rain = 0
KPG1 142024Z 04010G15KT 12/01 A3018 RMK A01 T01180008  RH  047%=      5-min Rain = 0
KPG1 142025Z 02012KT 12/01 A3018 RMK A01 T01200007  RH  046%=      5-min Rain = 0
KPG1 142026Z 02010KT 12/01 A3018 RMK A01 T01190006  RH  046%=      5-min Rain = 0
KPG1 142027Z 03012KT 12/01 A3018 RMK A01 T01190007  RH  046%=      5-min Rain = 0
KPG1 142028Z 04012KT 12/01 A3018 RMK A01 T01200007  RH  046%=      5-min Rain = 0
KPG1 142029Z 05011KT 12/01 A3018 RMK A01 T01200006  RH  045%=      5-min Rain = 0
KPG1 142030Z 07010KT 12/01 A3018 RMK A01 T01200007  RH  046%=      5-min Rain = 0
KPG1 142031Z 08008KT 12/01 A3017 RMK A01 T01210008  RH  046%=      5-min Rain = 0
KPG1 142032Z 06009KT 12/01 A3017 RMK A01 T01240009  RH  045%=      5-min Rain = 0
KPG1 142033Z 05008KT 13/01 A3017 RMK A01 T01260009  RH  045%=      5-min Rain = 0
KPG1 142034Z 06010KT 13/01 A3017 RMK A01 T01280009  RH  044%=      5-min Rain = 0
KPG1 142035Z 07011KT 13/01 A3017 RMK A01 T01270008  RH  044%=      5-min Rain = 0
KPG1 142036Z 07011KT 13/01 A3017 RMK A01 T01250006  RH  044%=      5-min Rain = 0
KPG1 142037Z 04011KT 13/01 A3017 RMK A01 T01260009  RH  045%=      5-min Rain = 0
KPG1 142038Z 04011KT 13/01 A3017 RMK A01 T01290009  RH  044%=      5-min Rain = 0
KPG1 142039Z 06008KT 13/01 A3017 RMK A01 T01280010  RH  044%=      5-min Rain = 0
KPG1 142040Z 07012KT 13/01 A3017 RMK A01 T01300009  RH  044%=      5-min Rain = 0
KPG1 142041Z 08012KT 13/01 A3017 RMK A01 T01280007  RH  044%=      5-min Rain = 0
KPG1 142042Z 06008G13KT 13/01 A3017 RMK A01 T01250006  RH  044%=      5-min Rain = 0
KPG1 142043Z 05006KT 13/01 A3017 RMK A01 T01280010  RH  045%=      5-min Rain = 0
KPG1 142044Z 04009KT 13/01 A3016 RMK A01 T01310010  RH  044%=      5-min Rain = 0
KPG1 142045Z 04008KT 13/01 A3016 RMK A01 T01320010  RH  043%=      5-min Rain = 0
KPG1 142046Z 03012KT 13/01 A3016 RMK A01 T01330010  RH  043%=      5-min Rain = 0
KPG1 142047Z 02011KT 13/01 A3016 RMK A01 T01280006  RH  043%=      5-min Rain = 0
KPG1 142048Z 03010KT 13/01 A3016 RMK A01 T01260007  RH  044%=      5-min Rain = 0
KPG1 142049Z 03010KT 13/01 A3016 RMK A01 T01280010  RH  044%=      5-min Rain = 0
KPG1 142050Z 03012KT 13/01 A3016 RMK A01 T01310009  RH  044%=      5-min Rain = 0
KPG1 142051Z 05011KT 13/01 A3016 RMK A01 T01270007  RH  044%=      5-min Rain = 0
KPG1 142052Z 05011KT 13/01 A3016 RMK A01 T01250008  RH  044%=      5-min Rain = 0
KPG1 142053Z 03014KT 13/01 A3016 RMK A01 T01270009  RH  044%=      5-min Rain = 0
KPG1 142054Z 04013KT 13/01 A3016 RMK A01 T01260007  RH  044%=      5-min Rain = 0
KPG1 142055Z 04013KT 12/01 A3016 RMK A01 T01230006  RH  045%=      5-min Rain = 0
KPG1 142056Z 05011KT 12/01 A3016 RMK A01 T01220007  RH  045%=      5-min Rain = 0
KPG1 142057Z 06010KT 13/01 A3016 RMK A01 T01250010  RH  046%=      5-min Rain = 0
KPG1 142058Z 07010KT 13/01 A3016 RMK A01 T01310013  RH  044%=      5-min Rain = 0
KPG1 142059Z 06012KT 13/01 A3015 RMK A01 T01330011  RH  043%=      5-min Rain = 0
KPG1 142100Z 06014KT 13/01 A3015 RMK A01 T01330011  RH  043%=      5-min Rain = 0
KPG1 142101Z 07015KT 13/01 A3015 RMK A01 T01290008  RH  044%=      5-min Rain = 0
KPG1 142102Z 05014KT 13/01 A3015 RMK A01 T01260009  RH  045%=      5-min Rain = 0
KPG1 142103Z 06011KT 13/01 A3015 RMK A01 T01270010  RH  045%=      5-min Rain = 0
KPG1 142104Z 04012KT 13/01 A3015 RMK A01 T01300011  RH  044%=      5-min Rain = 0
KPG1 142105Z 05012KT 13/01 A3015 RMK A01 T01310011  RH  044%=      5-min Rain = 0
KPG1 142106Z 05013KT 13/01 A3015 RMK A01 T01330012  RH  044%=      5-min Rain = 0
KPG1 142107Z 04014KT 13/01 A3015 RMK A01 T01330012  RH  044%=      5-min Rain = 0
KPG1 142108Z 07014G19KT 13/01 A3015 RMK A01 T01340012  RH  043%=      5-min Rain = 0
KPG1 142109Z 05014KT 13/01 A3015 RMK A01 T01320010  RH  043%=      5-min Rain = 0
KPG1 142110Z 05013KT 13/01 A3015 RMK A01 T01300011  RH  044%=      5-min Rain = 0
KPG1 142111Z 04014KT 13/01 A3015 RMK A01 T01320012  RH  044%=      5-min Rain = 0
KPG1 142112Z 05012KT 13/01 A3015 RMK A01 T01320012  RH  044%=      5-min Rain = 0
KPG1 142113Z 04015KT 13/01 A3015 RMK A01 T01330012  RH  044%=      5-min Rain = 0
KPG1 142114Z 05015KT 13/01 A3015 RMK A01 T01300010  RH  044%=      5-min Rain = 0
KPG1 142115Z 05012KT 13/01 A3015 RMK A01 T01260010  RH  045%=      5-min Rain = 0
KPG1 142116Z 04013KT 13/01 A3015 RMK A01 T01260011  RH  045%=      5-min Rain = 0
KPG1 142117Z 06014KT 13/01 A3015 RMK A01 T01270012  RH  045%=      5-min Rain = 0
KPG1 142118Z 04013KT 13/01 A3015 RMK A01 T01290012  RH  045%=      5-min Rain = 0
KPG1 142119Z 04015KT 13/01 A3015 RMK A01 T01300011  RH  044%=      5-min Rain = 0
KPG1 142120Z 05013KT 13/01 A3015 RMK A01 T01270010  RH  045%=      5-min Rain = 0
KPG1 142121Z 04013KT 13/01 A3015 RMK A01 T01270012  RH  045%=      5-min Rain = 0
KPG1 142122Z 05011KT 13/01 A3015 RMK A01 T01290012  RH  045%=      5-min Rain = 0
KPG1 142123Z 05014KT 13/01 A3015 RMK A01 T01320013  RH  044%=      5-min Rain = 0
KPG1 142124Z 05013KT 13/01 A3015 RMK A01 T01320012  RH  044%=      5-min Rain = 0
KPG1 142125Z 05016KT 13/01 A3015 RMK A01 T01300011  RH  044%=      5-min Rain = 0
KPG1 142126Z 04014KT 13/01 A3015 RMK A01 T01270010  RH  045%=      5-min Rain = 0
KPG1 142127Z 05013KT 13/01 A3015 RMK A01 T01260011  RH  045%=      5-min Rain = 0
KPG1 142128Z 05013KT 13/01 A3015 RMK A01 T01260011  RH  045%=      5-min Rain = 0
KPG1 142129Z 04015KT 13/01 A3015 RMK A01 T01260011  RH  045%=      5-min Rain = 0
KPG1 142130Z 05015KT 13/01 A3015 RMK A01 T01270011  RH  045%=      5-min Rain = 0
KPG1 142131Z 05013G18KT 13/01 A3015 RMK A01 T01260011  RH  045%=      5-min Rain = 0
KPG1 142132Z 05015KT 13/01 A3015 RMK A01 T01260011  RH  045%=      5-min Rain = 0
KPG1 142133Z 05012G18KT 12/01 A3014 RMK A01 T01240010  RH  046%=      5-min Rain = 0
KPG1 142134Z 04015KT 13/01 A3014 RMK A01 T01260012  RH  046%=      5-min Rain = 0
KPG1 142135Z 04016KT 13/01 A3014 RMK A01 T01270011  RH  045%=      5-min Rain = 0
KPG1 142136Z 04013KT 13/01 A3014 RMK A01 T01260011  RH  045%=      5-min Rain = 0
KPG1 142137Z 04014KT 12/01 A3014 RMK A01 T01240010  RH  046%=      5-min Rain = 0
KPG1 142138Z 03015G20KT 12/01 A3014 RMK A01 T01240011  RH  046%=      5-min Rain = 0
KPG1 142139Z 03017KT 12/01 A3014 RMK A01 T01240010  RH  046%=      5-min Rain = 0
KPG1 142140Z 03016KT 12/01 A3014 RMK A01 T01230010  RH  046%=      5-min Rain = 0
KPG1 142141Z 03014KT 12/01 A3014 RMK A01 T01230011  RH  046%=      5-min Rain = 0
KPG1 142142Z 03016KT 13/01 A3014 RMK A01 T01250011  RH  046%=      5-min Rain = 0
KPG1 142143Z 04017KT 13/01 A3014 RMK A01 T01250011  RH  046%=      5-min Rain = 0
KPG1 142144Z 04016KT 13/01 A3014 RMK A01 T01250011  RH  046%=      5-min Rain = 0
KPG1 142145Z 03014KT 13/01 A3014 RMK A01 T01250011  RH  046%=      5-min Rain = 0
KPG1 142146Z 04013KT 13/01 A3014 RMK A01 T01250011  RH  045%=      5-min Rain = 0
KPG1 142147Z 05014KT 13/01 A3014 RMK A01 T01260011  RH  046%=      5-min Rain = 0
KPG1 142148Z 06012KT 13/01 A3014 RMK A01 T01280012  RH  045%=      5-min Rain = 0
KPG1 142149Z 04014G19KT 13/01 A3014 RMK A01 T01290013  RH  045%=      5-min Rain = 0
KPG1 142150Z 04014KT 13/01 A3013 RMK A01 T01290012  RH  045%=      5-min Rain = 0
KPG1 142151Z 04016G21KT 13/01 A3013 RMK A01 T01300013  RH  045%=      5-min Rain = 0
KPG1 142152Z 04018KT 13/01 A3013 RMK A01 T01290011  RH  045%=      5-min Rain = 0
KPG1 142153Z 04014KT 13/01 A3013 RMK A01 T01260010  RH  045%=      5-min Rain = 0
KPG1 142154Z 03014KT 13/01 A3013 RMK A01 T01250011  RH  046%=      5-min Rain = 0
KPG1 142155Z 03013KT 13/01 A3013 RMK A01 T01260011  RH  046%=      5-min Rain = 0
KPG1 142156Z 03017KT 13/01 A3013 RMK A01 T01270013  RH  045%=      5-min Rain = 0
KPG1 142157Z 03016KT 13/01 A3013 RMK A01 T01280012  RH  045%=      5-min Rain = 0
KPG1 142158Z 03013KT 13/01 A3013 RMK A01 T01280013  RH  045%=      5-min Rain = 0
KPG1 142159Z 03014KT 13/01 A3013 RMK A01 T01310014  RH  045%=      5-min Rain = 0
KPG1 142200Z 03016KT 13/01 A3013 RMK A01 T01310013  RH  045%=      5-min Rain = 0
KPG1 142201Z 05014KT 13/01 A3013 RMK A01 T01310013  RH  045%=      5-min Rain = 0
KPG1 142202Z 05013KT 13/01 A3013 RMK A01 T01320014  RH  045%=      5-min Rain = 0
KPG1 142203Z 04015G20KT 13/01 A3013 RMK A01 T01320013  RH  044%=      5-min Rain = 0
KPG1 142204Z 03017KT 13/01 A3013 RMK A01 T01310012  RH  044%=      5-min Rain = 0
KPG1 142205Z 04015KT 13/01 A3013 RMK A01 T01290012  RH  045%=      5-min Rain = 0
KPG1 142206Z 04014KT 13/01 A3013 RMK A01 T01290012  RH  045%=      5-min Rain = 0
KPG1 142207Z 04015KT 13/01 A3013 RMK A01 T01300013  RH  045%=      5-min Rain = 0
KPG1 142208Z 03015KT 13/01 A3013 RMK A01 T01290012  RH  045%=      5-min Rain = 0
KPG1 142209Z 03014KT 13/01 A3013 RMK A01 T01270011  RH  045%=      5-min Rain = 0
KPG1 142210Z 03013KT 13/01 A3013 RMK A01 T01270012  RH  045%=      5-min Rain = 0
KPG1 142211Z 03017KT 13/01 A3012 RMK A01 T01260012  RH  046%=      5-min Rain = 0
KPG1 142212Z 03017KT 13/01 A3012 RMK A01 T01270012  RH  046%=      5-min Rain = 0
KPG1 142213Z 04014KT 13/01 A3013 RMK A01 T01260012  RH  045%=      5-min Rain = 0
KPG1 142214Z 05013KT 13/01 A3012 RMK A01 T01250012  RH  046%=      5-min Rain = 0
KPG1 142215Z 04014G19KT 13/01 A3012 RMK A01 T01280014  RH  046%=      5-min Rain = 0
KPG1 142216Z 03014KT 13/01 A3012 RMK A01 T01300014  RH  045%=      5-min Rain = 0
KPG1 142217Z 04013KT 13/01 A3012 RMK A01 T01290012  RH  045%=      5-min Rain = 0
KPG1 142218Z 03014KT 13/01 A3012 RMK A01 T01270012  RH  045%=      5-min Rain = 0
KPG1 142219Z 04015KT 13/01 A3012 RMK A01 T01270012  RH  046%=      5-min Rain = 0
KPG1 142220Z 04015KT 13/01 A3012 RMK A01 T01260012  RH  046%=      5-min Rain = 0
KPG1 142221Z 02013KT 13/01 A3012 RMK A01 T01270012  RH  046%=      5-min Rain = 0
KPG1 142222Z 03014G19KT 13/01 A3012 RMK A01 T01270012  RH  045%=      5-min Rain = 0
KPG1 142223Z 03015KT 13/01 A3012 RMK A01 T01280013  RH  045%=      5-min Rain = 0
KPG1 142224Z 03015KT 13/01 A3012 RMK A01 T01280013  RH  045%=      5-min Rain = 0
KPG1 142225Z 03013KT 13/01 A3012 RMK A01 T01280013  RH  045%=      5-min Rain = 0
KPG1 142226Z 03015KT 13/01 A3012 RMK A01 T01280013  RH  045%=      5-min Rain = 0
KPG1 142227Z 04016KT 13/01 A3012 RMK A01 T01270012  RH  045%=      5-min Rain = 0
KPG1 142228Z 04015KT 13/01 A3012 RMK A01 T01270012  RH  046%=      5-min Rain = 0
KPG1 142229Z 04013KT 13/01 A3012 RMK A01 T01280014  RH  046%=      5-min Rain = 0
KPG1 142230Z 05013KT 13/01 A3012 RMK A01 T01290014  RH  045%=      5-min Rain = 0
KPG1 142231Z 06013KT 13/01 A3012 RMK A01 T01310014  RH  045%=      5-min Rain = 0
KPG1 142232Z 06012KT 13/01 A3012 RMK A01 T01320014  RH  044%=      5-min Rain = 0
KPG1 142233Z 06012KT 13/01 A3012 RMK A01 T01310013  RH  044%=      5-min Rain = 0
KPG1 142234Z 07017KT 13/01 A3012 RMK A01 T01310013  RH  045%=      5-min Rain = 0
KPG1 142235Z 07015KT 13/01 A3012 RMK A01 T01290012  RH  045%=      5-min Rain = 0
KPG1 142236Z 06016KT 13/01 A3012 RMK A01 T01270012  RH  045%=      5-min Rain = 0
KPG1 142237Z 06015KT 13/01 A3012 RMK A01 T01270012  RH  046%=      5-min Rain = 0
KPG1 142238Z 05017KT 13/01 A3012 RMK A01 T01270012  RH  045%=      5-min Rain = 0
KPG1 142239Z 05013G18KT 13/01 A3012 RMK A01 T01260012  RH  046%=      5-min Rain = 0
KPG1 142240Z 05012KT 13/01 A3012 RMK A01 T01250012  RH  046%=      5-min Rain = 0
KPG1 142241Z 04015KT 13/01 A3012 RMK A01 T01260013  RH  046%=      5-min Rain = 0
KPG1 142242Z 04014KT 13/01 A3012 RMK A01 T01260012  RH  046%=      5-min Rain = 0
KPG1 142243Z 03017KT 13/01 A3012 RMK A01 T01260012  RH  046%=      5-min Rain = 0
KPG1 142244Z 03017KT 13/01 A3012 RMK A01 T01260012  RH  046%=      5-min Rain = 0
KPG1 142245Z 03015KT 13/01 A3012 RMK A01 T01250012  RH  046%=      5-min Rain = 0
KPG1 142246Z 03015KT 13/01 A3012 RMK A01 T01250012  RH  046%=      5-min Rain = 0
KPG1 142247Z 03015KT 13/01 A3012 RMK A01 T01270014  RH  046%=      5-min Rain = 0
KPG1 142248Z 03015G20KT 13/01 A3011 RMK A01 T01290013  RH  045%=      5-min Rain = 0
KPG1 142249Z 04010KT 13/01 A3011 RMK A01 T01290013  RH  045%=      5-min Rain = 0
KPG1 142250Z 05011KT 13/01 A3011 RMK A01 T01300014  RH  045%=      5-min Rain = 0
KPG1 142251Z 04013KT 13/01 A3011 RMK A01 T01320014  RH  045%=      5-min Rain = 0
KPG1 142252Z 04014KT 13/01 A3011 RMK A01 T01300013  RH  045%=      5-min Rain = 0
KPG1 142253Z 04014KT 13/01 A3011 RMK A01 T01300013  RH  045%=      5-min Rain = 0
KPG1 142254Z 03014KT 13/01 A3011 RMK A01 T01300013  RH  045%=      5-min Rain = 0
KPG1 142255Z 03015KT 13/01 A3011 RMK A01 T01290012  RH  045%=      5-min Rain = 0
KPG1 142256Z 03014KT 13/01 A3011 RMK A01 T01280012  RH  045%=      5-min Rain = 0
KPG1 142257Z 04016KT 13/01 A3011 RMK A01 T01280012  RH  045%=      5-min Rain = 0
KPG1 142258Z 03017KT 13/01 A3011 RMK A01 T01270012  RH  045%=      5-min Rain = 0
KPG1 142259Z 04015KT 13/01 A3011 RMK A01 T01260011  RH  046%=      5-min Rain = 0
KPG1 142300Z 03017KT 13/01 A3011 RMK A01 T01250012  RH  046%=      5-min Rain = 0
KPG1 142301Z 03020KT 13/01 A3011 RMK A01 T01250011  RH  046%=      5-min Rain = 0
KPG1 142302Z 03019KT 12/01 A3011 RMK A01 T01240012  RH  046%=      5-min Rain = 0
KPG1 142303Z 04018KT 12/01 A3011 RMK A01 T01240012  RH  046%=      5-min Rain = 0
KPG1 142304Z 03016G21KT 13/01 A3011 RMK A01 T01250012  RH  046%=      5-min Rain = 0
KPG1 142305Z 03019KT 13/01 A3011 RMK A01 T01250012  RH  046%=      5-min Rain = 0
KPG1 142306Z 03019KT 12/01 A3011 RMK A01 T01240011  RH  046%=      5-min Rain = 0
KPG1 142307Z 04017KT 12/01 A3011 RMK A01 T01240012  RH  046%=      5-min Rain = 0
KPG1 142308Z 04017G22KT 12/01 A3012 RMK A01 T01240012  RH  046%=      5-min Rain = 0
KPG1 142309Z 03019G24KT 12/01 A3012 RMK A01 T01240012  RH  046%=      5-min Rain = 0
KPG1 142310Z 03016KT 12/01 A3012 RMK A01 T01240012  RH  046%=      5-min Rain = 0
KPG1 142311Z 03016KT 12/01 A3012 RMK A01 T01240013  RH  046%=      5-min Rain = 0
KPG1 142312Z 03019G24KT 13/01 A3012 RMK A01 T01250013  RH  046%=      5-min Rain = 0
KPG1 142313Z 03018KT 13/01 A3012 RMK A01 T01250012  RH  046%=      5-min Rain = 0
KPG1 142314Z 03020KT 13/01 A3011 RMK A01 T01250012  RH  046%=      5-min Rain = 0
KPG1 142315Z 03016G21KT 12/01 A3012 RMK A01 T01240012  RH  046%=      5-min Rain = 0
KPG1 142316Z 04015KT 12/01 A3012 RMK A01 T01240012  RH  046%=      5-min Rain = 0
KPG1 142317Z 03018KT 12/01 A3011 RMK A01 T01230012  RH  047%=      5-min Rain = 0
KPG1 142318Z 03019KT 12/01 A3011 RMK A01 T01220012  RH  047%=      5-min Rain = 0
KPG1 142319Z 04016G21KT 12/01 A3012 RMK A01 T01210012  RH  047%=      5-min Rain = 0
KPG1 142320Z 04017KT 12/01 A3012 RMK A01 T01200012  RH  047%=      5-min Rain = 0
KPG1 142321Z 03017KT 12/01 A3012 RMK A01 T01200012  RH  047%=      5-min Rain = 0
KPG1 142322Z 04018KT 12/01 A3012 RMK A01 T01200012  RH  047%=      5-min Rain = 0
KPG1 142323Z 03016KT 12/01 A3012 RMK A01 T01190012  RH  048%=      5-min Rain = 0
KPG1 142324Z 03018KT 12/01 A3011 RMK A01 T01190012  RH  048%=      5-min Rain = 0
KPG1 142325Z 03017KT 12/01 A3012 RMK A01 T01190012  RH  048%=      5-min Rain = 0
KPG1 142326Z 03018KT 12/01 A3012 RMK A01 T01190012  RH  048%=      5-min Rain = 0
KPG1 142327Z 03019KT 12/01 A3011 RMK A01 T01190012  RH  048%=      5-min Rain = 0
KPG1 142328Z 03019KT 12/01 A3012 RMK A01 T01180012  RH  048%=      5-min Rain = 0
KPG1 142329Z 03017G22KT 12/01 A3011 RMK A01 T01180012  RH  048%=      5-min Rain = 0
KPG1 142330Z 03020KT 12/01 A3012 RMK A01 T01190013  RH  048%=      5-min Rain = 0
KPG1 142331Z 03019G24KT 12/01 A3011 RMK A01 T01170012  RH  048%=      5-min Rain = 0
KPG1 142332Z 03019KT 12/01 A3011 RMK A01 T01170013  RH  049%=      5-min Rain = 0
KPG1 142333Z 03019KT 12/01 A3011 RMK A01 T01170013  RH  049%=      5-min Rain = 0
KPG1 142334Z 04019KT 12/01 A3012 RMK A01 T01170013  RH  049%=      5-min Rain = 0
KPG1 142335Z 03019KT 12/01 A3011 RMK A01 T01170013  RH  049%=      5-min Rain = 0
KPG1 142336Z 04020KT 12/01 A3011 RMK A01 T01170013  RH  049%=      5-min Rain = 0
KPG1 142337Z 03019KT 12/01 A3011 RMK A01 T01170012  RH  049%=      5-min Rain = 0
KPG1 142338Z 04019KT 12/01 A3011 RMK A01 T01170013  RH  049%=      5-min Rain = 0
KPG1 142339Z 04020KT 12/01 A3012 RMK A01 T01160012  RH  049%=      5-min Rain = 0
KPG1 142340Z 03020KT 12/01 A3012 RMK A01 T01150012  RH  049%=      5-min Rain = 0
KPG1 142341Z 03020KT 12/01 A3011 RMK A01 T01150013  RH  049%=      5-min Rain = 0
KPG1 142342Z 03020KT 12/01 A3011 RMK A01 T01150013  RH  049%=      5-min Rain = 0
KPG1 142343Z 03021KT 12/01 A3011 RMK A01 T01150013  RH  049%=      5-min Rain = 0
KPG1 142344Z 03020KT 12/01 A3011 RMK A01 T01150013  RH  049%=      5-min Rain = 0
KPG1 142345Z 03021KT 12/01 A3012 RMK A01 T01150013  RH  049%=      5-min Rain = 0
KPG1 142346Z 03021KT 11/01 A3012 RMK A01 T01140012  RH  050%=      5-min Rain = 0
KPG1 142347Z 03021KT 11/01 A3011 RMK A01 T01140013  RH  050%=      5-min Rain = 0
KPG1 142348Z 03020KT 11/01 A3012 RMK A01 T01130013  RH  050%=      5-min Rain = 0
KPG1 142349Z 03019KT 11/01 A3011 RMK A01 T01130013  RH  050%=      5-min Rain = 0
KPG1 142350Z 03022KT 11/01 A3011 RMK A01 T01130013  RH  050%=      5-min Rain = 0
KPG1 142351Z 03020KT 11/01 A3011 RMK A01 T01140013  RH  050%=      5-min Rain = 0
KPG1 142352Z 03019KT 11/01 A3012 RMK A01 T01140013  RH  050%=      5-min Rain = 0
KPG1 142353Z 03020G26KT 11/01 A3012 RMK A01 T01140013  RH  050%=      5-min Rain = 0
KPG1 142354Z 04018KT 11/01 A3012 RMK A01 T01140013  RH  050%=      5-min Rain = 0
KPG1 142355Z 03021KT 11/01 A3012 RMK A01 T01140013  RH  050%=      5-min Rain = 0
KPG1 142356Z 04021KT 11/01 A3012 RMK A01 T01130013  RH  050%=      5-min Rain = 0
KPG1 142357Z 03021KT 11/01 A3012 RMK A01 T01130013  RH  050%=      5-min Rain = 0
KPG1 142358Z 03020KT 11/01 A3012 RMK A01 T01120013  RH  050%=      5-min Rain = 0
KPG1 142359Z 04020KT 11/01 A3012 RMK A01 T01120013  RH  050%=      5-min Rain = 0
KPG1 150000Z 03018KT 11/01 A3012 RMK A01 T01120013  RH  051%=      5-min Rain = 0
KPG1 150001Z 03016KT 11/01 A3012 RMK A01 T01120013  RH  050%=      5-min Rain = 0
KPG1 150002Z 04018G24KT 11/01 A3012 RMK A01 T01120013  RH  050%=      5-min Rain = 0
KPG1 150003Z 04018KT 11/01 A3012 RMK A01 T01120013  RH  050%=      5-min Rain = 0
KPG1 150004Z 04019KT 11/01 A3012 RMK A01 T01120013  RH  050%=      5-min Rain = 0
KPG1 150005Z 03020KT 11/01 A3013 RMK A01 T01120013  RH  051%=      5-min Rain = 0
KPG1 150006Z 04019KT 11/01 A3013 RMK A01 T01120013  RH  051%=      5-min Rain = 0
KPG1 150007Z 04019KT 11/01 A3013 RMK A01 T01120014  RH  051%=      5-min Rain = 0
KPG1 150008Z 04017KT 11/01 A3013 RMK A01 T01120013  RH  051%=      5-min Rain = 0
KPG1 150009Z 03019KT 11/01 A3013 RMK A01 T01120013  RH  051%=      5-min Rain = 0
KPG1 150010Z 03020KT 11/01 A3013 RMK A01 T01120013  RH  051%=      5-min Rain = 0
KPG1 150011Z 04020KT 11/01 A3013 RMK A01 T01120013  RH  051%=      5-min Rain = 0
KPG1 150012Z 04019KT 11/01 A3013 RMK A01 T01120014  RH  051%=      5-min Rain = 0
KPG1 150013Z 04017KT 11/01 A3013 RMK A01 T01110013  RH  051%=      5-min Rain = 0
KPG1 150014Z 04018KT 11/01 A3013 RMK A01 T01110013  RH  051%=      5-min Rain = 0
KPG1 150015Z 03019KT 11/01 A3013 RMK A01 T01110013  RH  051%=      5-min Rain = 0
KPG1 150016Z 03020KT 11/01 A3013 RMK A01 T01110014  RH  051%=      5-min Rain = 0
KPG1 150017Z 04019G24KT 11/01 A3013 RMK A01 T01110013  RH  051%=      5-min Rain = 0
KPG1 150018Z 04018KT 11/01 A3013 RMK A01 T01110014  RH  051%=      5-min Rain = 0
KPG1 150019Z 04019KT 11/01 A3013 RMK A01 T01100014  RH  051%=      5-min Rain = 0
KPG1 150020Z 04018KT 11/01 A3013 RMK A01 T01100014  RH  051%=      5-min Rain = 0
KPG1 150021Z 04017KT 11/01 A3013 RMK A01 T01100014  RH  051%=      5-min Rain = 0
KPG1 150022Z 03018KT 11/01 A3013 RMK A01 T01100014  RH  051%=      5-min Rain = 0
KPG1 150023Z 03018KT 11/01 A3013 RMK A01 T01100014  RH  052%=      5-min Rain = 0
KPG1 150024Z 03020KT 11/01 A3013 RMK A01 T01100014  RH  052%=      5-min Rain = 0
KPG1 150025Z 03020KT 11/01 A3013 RMK A01 T01090014  RH  052%=      5-min Rain = 0
KPG1 150026Z 03018KT 11/01 A3013 RMK A01 T01090014  RH  052%=      5-min Rain = 0
KPG1 150027Z 03018KT 11/01 A3013 RMK A01 T01080014  RH  052%=      5-min Rain = 0
KPG1 150028Z 03018KT 11/01 A3013 RMK A01 T01090014  RH  052%=      5-min Rain = 0
KPG1 150029Z 03016KT 11/01 A3013 RMK A01 T01090014  RH  052%=      5-min Rain = 0
KPG1 150030Z 03017KT 11/02 A3013 RMK A01 T01080015  RH  052%=      5-min Rain = 0
KPG1 150031Z 03019KT 11/01 A3013 RMK A01 T01080014  RH  052%=      5-min Rain = 0
KPG1 150032Z 04017KT 11/02 A3013 RMK A01 T01080015  RH  052%=      5-min Rain = 0
KPG1 150033Z 04017KT 11/02 A3014 RMK A01 T01080015  RH  052%=      5-min Rain = 0
KPG1 150034Z 04018KT 11/01 A3014 RMK A01 T01080014  RH  052%=      5-min Rain = 0
KPG1 150035Z 04019KT 11/02 A3014 RMK A01 T01080015  RH  053%=      5-min Rain = 0
KPG1 150036Z 04017KT 11/02 A3014 RMK A01 T01070015  RH  053%=      5-min Rain = 0
KPG1 150037Z 04017KT 11/02 A3014 RMK A01 T01070015  RH  053%=      5-min Rain = 0
KPG1 150038Z 04018KT 11/02 A3014 RMK A01 T01070015  RH  053%=      5-min Rain = 0
KPG1 150039Z 04018KT 11/02 A3014 RMK A01 T01070015  RH  053%=      5-min Rain = 0
KPG1 150040Z 04017KT 11/02 A3014 RMK A01 T01070015  RH  053%=      5-min Rain = 0
KPG1 150041Z 04018KT 11/02 A3014 RMK A01 T01060015  RH  053%=      5-min Rain = 0
KPG1 150042Z 03016KT 11/02 A3014 RMK A01 T01070015  RH  053%=      5-min Rain = 0
KPG1 150043Z 03016KT 11/02 A3014 RMK A01 T01060015  RH  053%=      5-min Rain = 0
KPG1 150044Z 03016KT 11/02 A3014 RMK A01 T01060015  RH  053%=      5-min Rain = 0
KPG1 150045Z 03018KT 11/02 A3014 RMK A01 T01060015  RH  054%=      5-min Rain = 0
KPG1 150046Z 03018KT 11/02 A3014 RMK A01 T01060015  RH  054%=      5-min Rain = 0
KPG1 150047Z 04018KT 11/02 A3014 RMK A01 T01050015  RH  054%=      5-min Rain = 0
KPG1 150048Z 03016KT 11/02 A3014 RMK A01 T01050016  RH  054%=      5-min Rain = 0
KPG1 150049Z 03018KT 11/02 A3014 RMK A01 T01050016  RH  054%=      5-min Rain = 0
KPG1 150050Z 04017KT 11/02 A3014 RMK A01 T01050015  RH  054%=      5-min Rain = 0
KPG1 150051Z 03018KT 11/02 A3014 RMK A01 T01050016  RH  054%=      5-min Rain = 0
KPG1 150052Z 03015KT 11/02 A3014 RMK A01 T01050016  RH  054%=      5-min Rain = 0
KPG1 150053Z 03016KT 10/02 A3014 RMK A01 T01040016  RH  054%=      5-min Rain = 0
KPG1 150054Z 03014KT 10/02 A3014 RMK A01 T01040016  RH  054%=      5-min Rain = 0
KPG1 150055Z 03017KT 10/02 A3014 RMK A01 T01040016  RH  054%=      5-min Rain = 0
KPG1 150056Z 03017KT 10/02 A3014 RMK A01 T01040016  RH  054%=      5-min Rain = 0
KPG1 150057Z 03015KT 10/02 A3015 RMK A01 T01040016  RH  054%=      5-min Rain = 0
KPG1 150058Z 04017KT 10/02 A3015 RMK A01 T01040016  RH  055%=      5-min Rain = 0
KPG1 150059Z 04015KT 10/02 A3015 RMK A01 T01040016  RH  055%=      5-min Rain = 0
KPG1 150100Z 03015KT 10/02 A3015 RMK A01 T01030016  RH  055%=      5-min Rain = 0
KPG1 150101Z 03014KT 10/02 A3015 RMK A01 T01030016  RH  055%=      5-min Rain = 0
KPG1 150102Z 03017KT 10/02 A3015 RMK A01 T01030016  RH  055%=      5-min Rain = 0
KPG1 150103Z 03016KT 10/02 A3015 RMK A01 T01030016  RH  055%=      5-min Rain = 0
KPG1 150104Z 03017KT 10/02 A3015 RMK A01 T01030016  RH  055%=      5-min Rain = 0
KPG1 150105Z 03015KT 10/02 A3015 RMK A01 T01020016  RH  055%=      5-min Rain = 0
KPG1 150106Z 03014KT 10/02 A3015 RMK A01 T01020016  RH  055%=      5-min Rain = 0
KPG1 150107Z 03016KT 10/02 A3015 RMK A01 T01020016  RH  055%=      5-min Rain = 0
KPG1 150108Z 03014G19KT 10/02 A3015 RMK A01 T01020016  RH  055%=      5-min Rain = 0
KPG1 150109Z 03019KT 10/02 A3015 RMK A01 T01010016  RH  055%=      5-min Rain = 0
KPG1 150110Z 04017KT 10/02 A3014 RMK A01 T01010016  RH  056%=      5-min Rain = 0
KPG1 150111Z 04019KT 10/02 A3014 RMK A01 T01010016  RH  056%=      5-min Rain = 0
KPG1 150112Z 03018KT 10/02 A3014 RMK A01 T01010016  RH  056%=      5-min Rain = 0
KPG1 150113Z 04018KT 10/02 A3014 RMK A01 T01010016  RH  056%=      5-min Rain = 0
KPG1 150114Z 03019KT 10/02 A3014 RMK A01 T01010016  RH  056%=      5-min Rain = 0
KPG1 150115Z 04017G22KT 10/02 A3015 RMK A01 T01010016  RH  056%=      5-min Rain = 0
KPG1 150116Z 03017KT 10/02 A3015 RMK A01 T01010016  RH  056%=      5-min Rain = 0
KPG1 150117Z 03016KT 10/02 A3014 RMK A01 T01000016  RH  056%=      5-min Rain = 0
KPG1 150118Z 03015KT 10/02 A3014 RMK A01 T01000016  RH  056%=      5-min Rain = 0
KPG1 150119Z 04017KT 10/02 A3015 RMK A01 T00990016  RH  056%=      5-min Rain = 0
KPG1 150120Z 03019KT 10/02 A3014 RMK A01 T00990016  RH  056%=      5-min Rain = 0
KPG1 150121Z 04017KT 10/02 A3014 RMK A01 T00990016  RH  056%=      5-min Rain = 0
KPG1 150122Z 03018KT 10/02 A3015 RMK A01 T00990016  RH  056%=      5-min Rain = 0
KPG1 150123Z 03015KT 10/02 A3014 RMK A01 T00990016  RH  057%=      5-min Rain = 0
KPG1 150124Z 04018KT 10/02 A3014 RMK A01 T00980016  RH  057%=      5-min Rain = 0
KPG1 150125Z 03018KT 10/02 A3015 RMK A01 T00980017  RH  057%=      5-min Rain = 0
KPG1 150126Z 03019KT 10/02 A3015 RMK A01 T00980017  RH  057%=      5-min Rain = 0
KPG1 150127Z 03019KT 10/02 A3015 RMK A01 T00980017  RH  057%=      5-min Rain = 0
KPG1 150128Z 03017KT 10/02 A3015 RMK A01 T00980017  RH  057%=      5-min Rain = 0
KPG1 150129Z 03017KT 10/02 A3015 RMK A01 T00980017  RH  057%=      5-min Rain = 0
KPG1 150130Z 03016KT 10/02 A3015 RMK A01 T00980017  RH  057%=      5-min Rain = 0
KPG1 150131Z 03018KT 10/02 A3015 RMK A01 T00970017  RH  057%=      5-min Rain = 0
KPG1 150132Z 03018KT 10/02 A3015 RMK A01 T00970017  RH  057%=      5-min Rain = 0
KPG1 150133Z 03019KT 10/02 A3015 RMK A01 T00970017  RH  057%=      5-min Rain = 0
KPG1 150134Z 03018KT 10/02 A3015 RMK A01 T00970017  RH  057%=      5-min Rain = 0
KPG1 150135Z 04018KT 10/02 A3015 RMK A01 T00970017  RH  058%=      5-min Rain = 0
KPG1 150136Z 04019KT 10/02 A3015 RMK A01 T00970017  RH  058%=      5-min Rain = 0
KPG1 150137Z 03019G24KT 10/02 A3015 RMK A01 T00970018  RH  058%=      5-min Rain = 0
KPG1 150138Z 04019KT 10/02 A3015 RMK A01 T00970018  RH  058%=      5-min Rain = 0
KPG1 150139Z 03020KT 10/02 A3015 RMK A01 T00970018  RH  058%=      5-min Rain = 0
KPG1 150140Z 04016KT 10/02 A3015 RMK A01 T00970018  RH  058%=      5-min Rain = 0
KPG1 150141Z 03019KT 10/02 A3015 RMK A01 T00960017  RH  058%=      5-min Rain = 0
KPG1 150142Z 04019KT 10/02 A3015 RMK A01 T00960018  RH  058%=      5-min Rain = 0
KPG1 150143Z 03017KT 10/02 A3016 RMK A01 T00960018  RH  058%=      5-min Rain = 0
KPG1 150144Z 03017KT 10/02 A3016 RMK A01 T00960018  RH  058%=      5-min Rain = 0
KPG1 150145Z 03016G21KT 10/02 A3015 RMK A01 T00960018  RH  058%=      5-min Rain = 0
KPG1 150146Z 03016KT 10/02 A3016 RMK A01 T00960018  RH  058%=      5-min Rain = 0
KPG1 150147Z 03017KT 10/02 A3016 RMK A01 T00950017  RH  058%=      5-min Rain = 0
KPG1 150148Z 03015KT 10/02 A3016 RMK A01 T00950018  RH  059%=      5-min Rain = 0
KPG1 150149Z 03018KT 10/02 A3016 RMK A01 T00950018  RH  059%=      5-min Rain = 0
KPG1 150150Z 03016KT 09/02 A3016 RMK A01 T00940017  RH  059%=      5-min Rain = 0
KPG1 150151Z 03017KT 09/02 A3016 RMK A01 T00940018  RH  059%=      5-min Rain = 0
KPG1 150152Z 03016KT 09/02 A3016 RMK A01 T00940018  RH  059%=      5-min Rain = 0
KPG1 150153Z 03015KT 09/02 A3015 RMK A01 T00940017  RH  059%=      5-min Rain = 0
KPG1 150154Z 03017KT 09/02 A3015 RMK A01 T00940017  RH  059%=      5-min Rain = 0
KPG1 150155Z 03016G22KT 09/02 A3015 RMK A01 T00930017  RH  059%=      5-min Rain = 0
KPG1 150156Z 03017G22KT 09/02 A3015 RMK A01 T00940018  RH  059%=      5-min Rain = 0
KPG1 150157Z 03017KT 09/02 A3015 RMK A01 T00930017  RH  059%=      5-min Rain = 0
KPG1 150158Z 03015KT 09/02 A3015 RMK A01 T00930018  RH  059%=      5-min Rain = 0
KPG1 150159Z 03015KT 09/02 A3015 RMK A01 T00930017  RH  059%=      5-min Rain = 0
KPG1 150200Z 03015KT 09/02 A3015 RMK A01 T00920017  RH  059%=      5-min Rain = 0
KPG1 150201Z 03015KT 09/02 A3015 RMK A01 T00920017  RH  060%=      5-min Rain = 0
KPG1 150202Z 03015KT 09/02 A3015 RMK A01 T00910017  RH  060%=      5-min Rain = 0
KPG1 150203Z 03016KT 09/02 A3015 RMK A01 T00910017  RH  060%=      5-min Rain = 0
KPG1 150204Z 03015KT 09/02 A3015 RMK A01 T00910017  RH  060%=      5-min Rain = 0
KPG1 150205Z 03016KT 09/02 A3016 RMK A01 T00910017  RH  060%=      5-min Rain = 0
KPG1 150206Z 03016KT 09/02 A3016 RMK A01 T00910017  RH  060%=      5-min Rain = 0
KPG1 150207Z 03015KT 09/02 A3016 RMK A01 T00910018  RH  060%=      5-min Rain = 0
KPG1 150208Z 03015KT 09/02 A3016 RMK A01 T00910017  RH  060%=      5-min Rain = 0
KPG1 150209Z 03017KT 09/02 A3016 RMK A01 T00900017  RH  060%=      5-min Rain = 0
KPG1 150210Z 03017KT 09/02 A3016 RMK A01 T00900017  RH  060%=      5-min Rain = 0
KPG1 150211Z 02016KT 09/02 A3016 RMK A01 T00900017  RH  060%=      5-min Rain = 0
KPG1 150212Z 02016KT 09/02 A3016 RMK A01 T00890017  RH  061%=      5-min Rain = 0
KPG1 150213Z 02018KT 09/02 A3016 RMK A01 T00890017  RH  061%=      5-min Rain = 0
KPG1 150214Z 02018KT 09/02 A3016 RMK A01 T00890018  RH  061%=      5-min Rain = 0
KPG1 150215Z 02019KT 09/02 A3016 RMK A01 T00890017  RH  061%=      5-min Rain = 0
KPG1 150216Z 02019KT 09/02 A3016 RMK A01 T00890017  RH  061%=      5-min Rain = 0
KPG1 150217Z 02019KT 09/02 A3016 RMK A01 T00890018  RH  061%=      5-min Rain = 0
KPG1 150218Z 02018KT 09/02 A3016 RMK A01 T00890017  RH  061%=      5-min Rain = 0
KPG1 150219Z 02018KT 09/02 A3016 RMK A01 T00890017  RH  061%=      5-min Rain = 0
KPG1 150220Z 02018KT 09/02 A3016 RMK A01 T00890018  RH  061%=      5-min Rain = 0
KPG1 150221Z 02018KT 09/02 A3016 RMK A01 T00890017  RH  061%=      5-min Rain = 0
KPG1 150222Z 02017KT 09/02 A3016 RMK A01 T00890017  RH  061%=      5-min Rain = 0
KPG1 150223Z 02017KT 09/02 A3016 RMK A01 T00890018  RH  061%=      5-min Rain = 0
KPG1 150224Z 02016KT 09/02 A3016 RMK A01 T00890018  RH  061%=      5-min Rain = 0
KPG1 150225Z 02017KT 09/02 A3016 RMK A01 T00880018  RH  061%=      5-min Rain = 0
KPG1 150226Z 02017KT 09/02 A3016 RMK A01 T00880017  RH  061%=      5-min Rain = 0
KPG1 150227Z 02018KT 09/02 A3016 RMK A01 T00880017  RH  061%=      5-min Rain = 0
KPG1 150228Z 02018KT 09/02 A3016 RMK A01 T00880017  RH  061%=      5-min Rain = 0
KPG1 150229Z 02019KT 09/02 A3016 RMK A01 T00880017  RH  061%=      5-min Rain = 0
KPG1 150230Z 02017KT 09/02 A3016 RMK A01 T00880017  RH  061%=      5-min Rain = 0
KPG1 150231Z 02018KT 09/02 A3016 RMK A01 T00880017  RH  061%=      5-min Rain = 0
KPG1 150232Z 02019KT 09/02 A3016 RMK A01 T00870017  RH  061%=      5-min Rain = 0
KPG1 150233Z 02018KT 09/02 A3016 RMK A01 T00870017  RH  061%=      5-min Rain = 0
KPG1 150234Z 02019KT 09/02 A3016 RMK A01 T00880018  RH  061%=      5-min Rain = 0
KPG1 150235Z 02017KT 09/02 A3016 RMK A01 T00880018  RH  061%=      5-min Rain = 0
KPG1 150236Z 02017KT 09/02 A3016 RMK A01 T00880017  RH  061%=      5-min Rain = 0
KPG1 150237Z 02017KT 09/02 A3016 RMK A01 T00870017  RH  061%=      5-min Rain = 0
KPG1 150238Z 02016KT 09/02 A3016 RMK A01 T00870017  RH  062%=      5-min Rain = 0
KPG1 150239Z 02016KT 09/02 A3016 RMK A01 T00870017  RH  062%=      5-min Rain = 0
KPG1 150240Z 02017KT 09/02 A3016 RMK A01 T00860017  RH  062%=      5-min Rain = 0
KPG1 150241Z 02018KT 09/02 A3016 RMK A01 T00860017  RH  062%=      5-min Rain = 0
KPG1 150242Z 02019KT 09/02 A3016 RMK A01 T00860017  RH  062%=      5-min Rain = 0
KPG1 150243Z 02018KT 09/02 A3016 RMK A01 T00860017  RH  062%=      5-min Rain = 0
KPG1 150244Z 02019KT 09/02 A3016 RMK A01 T00860017  RH  062%=      5-min Rain = 0
KPG1 150245Z 02018KT 09/02 A3016 RMK A01 T00860017  RH  062%=      5-min Rain = 0
KPG1 150246Z 02019KT 09/02 A3016 RMK A01 T00860018  RH  062%=      5-min Rain = 0
KPG1 150247Z 02019KT 09/02 A3016 RMK A01 T00860017  RH  062%=      5-min Rain = 0
KPG1 150248Z 01019KT 09/02 A3016 RMK A01 T00860018  RH  062%=      5-min Rain = 0
KPG1 150249Z 02019KT 09/02 A3016 RMK A01 T00860018  RH  062%=      5-min Rain = 0
KPG1 150250Z 02018KT 09/02 A3016 RMK A01 T00860017  RH  062%=      5-min Rain = 0
KPG1 150251Z 02019KT 09/02 A3016 RMK A01 T00860017  RH  062%=      5-min Rain = 0
KPG1 150252Z 02018KT 09/02 A3016 RMK A01 T00860018  RH  062%=      5-min Rain = 0
KPG1 150253Z 02019KT 09/02 A3016 RMK A01 T00860017  RH  062%=      5-min Rain = 0
KPG1 150254Z 02020KT 09/02 A3016 RMK A01 T00860017  RH  062%=      5-min Rain = 0
KPG1 150255Z 02020KT 09/02 A3017 RMK A01 T00860018  RH  062%=      5-min Rain = 0
KPG1 150256Z 02016KT 09/02 A3017 RMK A01 T00860018  RH  062%=      5-min Rain = 0
KPG1 150257Z 02019KT 09/02 A3017 RMK A01 T00860017  RH  062%=      5-min Rain = 0
KPG1 150258Z 01018KT 09/02 A3017 RMK A01 T00860018  RH  062%=      5-min Rain = 0
KPG1 150259Z 02017KT 09/02 A3017 RMK A01 T00860018  RH  062%=      5-min Rain = 0
KPG1 150300Z 01018KT 09/02 A3016 RMK A01 T00860018  RH  062%=      5-min Rain = 0
KPG1 150301Z 02020KT 09/02 A3016 RMK A01 T00860018  RH  062%=      5-min Rain = 0
KPG1 150302Z 01021KT 09/02 A3016 RMK A01 T00860018  RH  062%=      5-min Rain = 0
KPG1 150303Z 02019KT 09/02 A3017 RMK A01 T00860018  RH  062%=      5-min Rain = 0
KPG1 150304Z 02019KT 09/02 A3017 RMK A01 T00860018  RH  062%=      5-min Rain = 0
KPG1 150305Z 02017KT 09/02 A3017 RMK A01 T00860018  RH  062%=      5-min Rain = 0
KPG1 150306Z 02019KT 09/02 A3017 RMK A01 T00860018  RH  063%=      5-min Rain = 0
KPG1 150307Z 02017G22KT 09/02 A3017 RMK A01 T00860018  RH  063%=      5-min Rain = 0
KPG1 150308Z 02018G23KT 09/02 A3017 RMK A01 T00850018  RH  063%=      5-min Rain = 0
KPG1 150309Z 02019KT 09/02 A3017 RMK A01 T00850018  RH  063%=      5-min Rain = 0
KPG1 150310Z 01017G22KT 09/02 A3017 RMK A01 T00850018  RH  063%=      5-min Rain = 0
KPG1 150311Z 02019KT 09/02 A3017 RMK A01 T00850018  RH  063%=      5-min Rain = 0
KPG1 150312Z 02018KT 09/02 A3017 RMK A01 T00850019  RH  063%=      5-min Rain = 0
KPG1 150313Z 02017KT 09/02 A3017 RMK A01 T00850019  RH  063%=      5-min Rain = 0
KPG1 150314Z 02015KT 09/02 A3017 RMK A01 T00850019  RH  063%=      5-min Rain = 0
KPG1 150315Z 02020KT 09/02 A3017 RMK A01 T00850019  RH  063%=      5-min Rain = 0
KPG1 150316Z 02020KT 09/02 A3017 RMK A01 T00850019  RH  063%=      5-min Rain = 0
KPG1 150317Z 02018KT 09/02 A3017 RMK A01 T00850019  RH  063%=      5-min Rain = 0
KPG1 150318Z 02016KT 09/02 A3017 RMK A01 T00850019  RH  063%=      5-min Rain = 0
KPG1 150319Z 02019KT 08/02 A3017 RMK A01 T00840019  RH  064%=      5-min Rain = 0
KPG1 150320Z 02020KT 08/02 A3017 RMK A01 T00840020  RH  064%=      5-min Rain = 0
KPG1 150321Z 02019KT 08/02 A3017 RMK A01 T00840019  RH  064%=      5-min Rain = 0
KPG1 150322Z 02017KT 09/02 A3017 RMK A01 T00850020  RH  064%=      5-min Rain = 0
KPG1 150323Z 01015KT 08/02 A3017 RMK A01 T00840019  RH  064%=      5-min Rain = 0
KPG1 150324Z 01016KT 08/02 A3017 RMK A01 T00840019  RH  064%=      5-min Rain = 0
KPG1 150325Z 01017KT 08/02 A3017 RMK A01 T00840019  RH  064%=      5-min Rain = 0
KPG1 150326Z 01016KT 08/02 A3017 RMK A01 T00840019  RH  064%=      5-min Rain = 0
KPG1 150327Z 02016G22KT 08/02 A3017 RMK A01 T00840020  RH  064%=      5-min Rain = 0
KPG1 150328Z 02019KT 08/02 A3017 RMK A01 T00840020  RH  064%=      5-min Rain = 0
KPG1 150329Z 02018KT 08/02 A3017 RMK A01 T00840020  RH  064%=      5-min Rain = 0
KPG1 150330Z 02019KT 08/02 A3017 RMK A01 T00840020  RH  064%=      5-min Rain = 0
KPG1 150331Z 01017G22KT 08/02 A3017 RMK A01 T00840021  RH  064%=      5-min Rain = 0
KPG1 150332Z 02020KT 08/02 A3017 RMK A01 T00830020  RH  064%=      5-min Rain = 0
KPG1 150333Z 02019KT 08/02 A3017 RMK A01 T00830020  RH  065%=      5-min Rain = 0
KPG1 150334Z 02019KT 08/02 A3017 RMK A01 T00830020  RH  065%=      5-min Rain = 0
KPG1 150335Z 02019KT 08/02 A3017 RMK A01 T00830020  RH  065%=      5-min Rain = 0
KPG1 150336Z 02018KT 08/02 A3017 RMK A01 T00820020  RH  065%=      5-min Rain = 0
KPG1 150337Z 01017G22KT 08/02 A3017 RMK A01 T00820021  RH  065%=      5-min Rain = 0
KPG1 150338Z 02019KT 08/02 A3017 RMK A01 T00830021  RH  065%=      5-min Rain = 0
KPG1 150339Z 02018KT 08/02 A3017 RMK A01 T00820021  RH  065%=      5-min Rain = 0
KPG1 150340Z 02019KT 08/02 A3017 RMK A01 T00820021  RH  065%=      5-min Rain = 0
KPG1 150341Z 02018KT 08/02 A3017 RMK A01 T00820021  RH  066%=      5-min Rain = 0
KPG1 150342Z 02019KT 08/02 A3017 RMK A01 T00820021  RH  066%=      5-min Rain = 0
KPG1 150343Z 01017KT 08/02 A3017 RMK A01 T00820021  RH  066%=      5-min Rain = 0
KPG1 150344Z 02020KT 08/02 A3017 RMK A01 T00810021  RH  066%=      5-min Rain = 0
KPG1 150345Z 02017KT 08/02 A3017 RMK A01 T00810022  RH  066%=      5-min Rain = 0
KPG1 150346Z 02018KT 08/02 A3017 RMK A01 T00810022  RH  066%=      5-min Rain = 0
KPG1 150347Z 02020KT 08/02 A3017 RMK A01 T00810022  RH  066%=      5-min Rain = 0
KPG1 150348Z 02019KT 08/02 A3017 RMK A01 T00810022  RH  066%=      5-min Rain = 0
KPG1 150349Z 02018KT 08/02 A3017 RMK A01 T00810022  RH  066%=      5-min Rain = 0
KPG1 150350Z 02018KT 08/02 A3017 RMK A01 T00810022  RH  066%=      5-min Rain = 0
KPG1 150351Z 01017KT 08/02 A3017 RMK A01 T00810022  RH  066%=      5-min Rain = 0
KPG1 150352Z 02018KT 08/02 A3017 RMK A01 T00810022  RH  066%=      5-min Rain = 0
KPG1 150353Z 01016KT 08/02 A3017 RMK A01 T00810022  RH  066%=      5-min Rain = 0
KPG1 150354Z 02017KT 08/02 A3017 RMK A01 T00800022  RH  067%=      5-min Rain = 0
KPG1 150355Z 02018KT 08/02 A3017 RMK A01 T00800022  RH  067%=      5-min Rain = 0
KPG1 150356Z 02018KT 08/02 A3017 RMK A01 T00800022  RH  067%=      5-min Rain = 0
KPG1 150357Z 02019KT 08/02 A3017 RMK A01 T00800022  RH  067%=      5-min Rain = 0
KPG1 150358Z 02018KT 08/02 A3017 RMK A01 T00790022  RH  067%=      5-min Rain = 0
KPG1 150359Z 02016KT 08/02 A3017 RMK A01 T00790022  RH  067%=      5-min Rain = 0
KPG1 150400Z 02019KT 08/02 A3017 RMK A01 T00790022  RH  067%=      5-min Rain = 0
KPG1 150401Z 01018KT 08/02 A3017 RMK A01 T00780022  RH  068%=      5-min Rain = 0
KPG1 150402Z 02018KT 08/02 A3017 RMK A01 T00780022  RH  068%=      5-min Rain = 0
KPG1 150403Z 02019KT 08/02 A3017 RMK A01 T00780022  RH  068%=      5-min Rain = 0
KPG1 150404Z 02017KT 08/02 A3017 RMK A01 T00780023  RH  068%=      5-min Rain = 0
KPG1 150405Z 02017KT 08/02 A3017 RMK A01 T00780023  RH  068%=      5-min Rain = 0
KPG1 150406Z 02018KT 08/02 A3017 RMK A01 T00780023  RH  068%=      5-min Rain = 0
KPG1 150407Z 02018KT 08/02 A3017 RMK A01 T00780023  RH  068%=      5-min Rain = 0
KPG1 150408Z 02018KT 08/02 A3017 RMK A01 T00780023  RH  068%=      5-min Rain = 0
KPG1 150409Z 02019KT 08/02 A3017 RMK A01 T00790024  RH  068%=      5-min Rain = 0
KPG1 150410Z 02019KT 08/02 A3017 RMK A01 T00780023  RH  068%=      5-min Rain = 0
KPG1 150411Z 02018KT 08/02 A3017 RMK A01 T00780023  RH  068%=      5-min Rain = 0
KPG1 150412Z 02016KT 08/02 A3017 RMK A01 T00780023  RH  068%=      5-min Rain = 0
KPG1 150413Z 02017KT 08/02 A3017 RMK A01 T00780023  RH  068%=      5-min Rain = 0
KPG1 150414Z 02018KT 08/02 A3017 RMK A01 T00780023  RH  069%=      5-min Rain = 0
KPG1 150415Z 02018G23KT 08/02 A3017 RMK A01 T00770023  RH  069%=      5-min Rain = 0
KPG1 150416Z 01018G23KT 08/02 A3017 RMK A01 T00780024  RH  069%=      5-min Rain = 0
KPG1 150417Z 01016KT 08/02 A3017 RMK A01 T00780024  RH  069%=      5-min Rain = 0
KPG1 150418Z 02017KT 08/02 A3017 RMK A01 T00780024  RH  069%=      5-min Rain = 0
KPG1 150419Z 02019KT 08/02 A3017 RMK A01 T00770024  RH  069%=      5-min Rain = 0
KPG1 150420Z 02019KT 08/02 A3017 RMK A01 T00770024  RH  069%=      5-min Rain = 0
KPG1 150421Z 02019KT 08/02 A3017 RMK A01 T00770024  RH  069%=      5-min Rain = 0
KPG1 150422Z 02017KT 08/02 A3017 RMK A01 T00770024  RH  069%=      5-min Rain = 0
KPG1 150423Z 02018KT 08/02 A3017 RMK A01 T00770023  RH  069%=      5-min Rain = 0
KPG1 150424Z 01016KT 08/02 A3017 RMK A01 T00770024  RH  069%=      5-min Rain = 0
KPG1 150425Z 03016KT 08/02 A3017 RMK A01 T00770024  RH  069%=      5-min Rain = 0
KPG1 150426Z 02016KT 08/02 A3017 RMK A01 T00770024  RH  069%=      5-min Rain = 0
KPG1 150427Z 02017KT 08/02 A3017 RMK A01 T00770024  RH  069%=      5-min Rain = 0
KPG1 150428Z 02017KT 08/02 A3017 RMK A01 T00770024  RH  069%=      5-min Rain = 0
KPG1 150429Z 02015KT 08/02 A3017 RMK A01 T00760024  RH  069%=      5-min Rain = 0
KPG1 150430Z 02018KT 08/02 A3017 RMK A01 T00760024  RH  069%=      5-min Rain = 0
KPG1 150431Z 02016KT 08/02 A3017 RMK A01 T00760024  RH  070%=      5-min Rain = 0
KPG1 150432Z 02017KT 08/02 A3017 RMK A01 T00760024  RH  069%=      5-min Rain = 0
KPG1 150433Z 02018KT 08/02 A3017 RMK A01 T00760024  RH  070%=      5-min Rain = 0
KPG1 150434Z 02017KT 08/02 A3017 RMK A01 T00760024  RH  070%=      5-min Rain = 0
KPG1 150435Z 02018KT 08/02 A3017 RMK A01 T00760024  RH  070%=      5-min Rain = 0
KPG1 150436Z 02017KT 08/02 A3017 RMK A01 T00760024  RH  070%=      5-min Rain = 0
KPG1 150437Z 02016KT 08/02 A3017 RMK A01 T00750024  RH  070%=      5-min Rain = 0
KPG1 150438Z 02017KT 08/02 A3017 RMK A01 T00750023  RH  070%=      5-min Rain = 0
KPG1 150439Z 02017KT 08/02 A3017 RMK A01 T00750024  RH  070%=      5-min Rain = 0
KPG1 150440Z 02018KT 08/02 A3017 RMK A01 T00750023  RH  070%=      5-min Rain = 0
KPG1 150441Z 02017KT 08/02 A3017 RMK A01 T00750024  RH  070%=      5-min Rain = 0
KPG1 150442Z 02016KT 08/02 A3017 RMK A01 T00750024  RH  070%=      5-min Rain = 0
KPG1 150443Z 02017KT 08/02 A3017 RMK A01 T00750024  RH  070%=      5-min Rain = 0
KPG1 150444Z 02017KT 08/02 A3017 RMK A01 T00750024  RH  070%=      5-min Rain = 0
KPG1 150445Z 02017KT 07/02 A3017 RMK A01 T00740024  RH  070%=      5-min Rain = 0
KPG1 150446Z 02016KT 07/02 A3017 RMK A01 T00740023  RH  070%=      5-min Rain = 0
KPG1 150447Z 02016KT 07/02 A3017 RMK A01 T00740024  RH  071%=      5-min Rain = 0
KPG1 150448Z 02016KT 07/02 A3017 RMK A01 T00740024  RH  071%=      5-min Rain = 0
KPG1 150449Z 03016KT 07/02 A3017 RMK A01 T00730023  RH  071%=      5-min Rain = 0
KPG1 150450Z 03016KT 07/02 A3017 RMK A01 T00730023  RH  071%=      5-min Rain = 0
KPG1 150451Z 03015KT 07/02 A3017 RMK A01 T00720023  RH  071%=      5-min Rain = 0
KPG1 150452Z 03014KT 07/02 A3017 RMK A01 T00710023  RH  071%=      5-min Rain = 0
KPG1 150453Z 03015KT 07/02 A3017 RMK A01 T00710023  RH  072%=      5-min Rain = 0
KPG1 150454Z 03014KT 07/02 A3017 RMK A01 T00700023  RH  072%=      5-min Rain = 0
KPG1 150455Z 03014KT 07/02 A3017 RMK A01 T00700023  RH  072%=      5-min Rain = 0
KPG1 150456Z 03014KT 07/02 A3016 RMK A01 T00690023  RH  072%=      5-min Rain = 0
KPG1 150457Z 03015KT 07/02 A3016 RMK A01 T00690023  RH  072%=      5-min Rain = 0
KPG1 150458Z 03015KT 07/02 A3016 RMK A01 T00690023  RH  072%=      5-min Rain = 0
KPG1 150459Z 03015KT 07/02 A3016 RMK A01 T00690023  RH  072%=      5-min Rain = 0
KPG1 150500Z 03014KT 07/02 A3016 RMK A01 T00690023  RH  073%=      5-min Rain = 0
KPG1 150501Z 03015KT 07/02 A3016 RMK A01 T00690023  RH  073%=      5-min Rain = 0
KPG1 150502Z 03014KT 07/02 A3016 RMK A01 T00690023  RH  073%=      5-min Rain = 0
KPG1 150503Z 03014KT 07/02 A3016 RMK A01 T00690023  RH  073%=      5-min Rain = 0
KPG1 150504Z 03013KT 07/02 A3016 RMK A01 T00690023  RH  073%=      5-min Rain = 0
KPG1 150505Z 03013KT 07/02 A3016 RMK A01 T00680023  RH  073%=      5-min Rain = 0
KPG1 150506Z 03015KT 07/02 A3016 RMK A01 T00670022  RH  073%=      5-min Rain = 0
KPG1 150507Z 02014KT 07/02 A3016 RMK A01 T00670022  RH  073%=      5-min Rain = 0
KPG1 150508Z 02014KT 07/02 A3016 RMK A01 T00670023  RH  073%=      5-min Rain = 0
KPG1 150509Z 02014KT 07/02 A3016 RMK A01 T00670023  RH  073%=      5-min Rain = 0
KPG1 150510Z 03013KT 07/02 A3016 RMK A01 T00670023  RH  073%=      5-min Rain = 0
KPG1 150511Z 02013KT 07/02 A3016 RMK A01 T00680023  RH  073%=      5-min Rain = 0
KPG1 150512Z 01014KT 07/02 A3016 RMK A01 T00680023  RH  073%=      5-min Rain = 0
KPG1 150513Z 02015KT 07/02 A3016 RMK A01 T00700024  RH  073%=      5-min Rain = 0
KPG1 150514Z 02015KT 07/03 A3016 RMK A01 T00720025  RH  072%=      5-min Rain = 0
KPG1 150515Z 02016KT 07/02 A3016 RMK A01 T00720024  RH  072%=      5-min Rain = 0
KPG1 150516Z 02015KT 07/02 A3016 RMK A01 T00730024  RH  071%=      5-min Rain = 0
KPG1 150517Z 02014KT 07/02 A3016 RMK A01 T00730024  RH  071%=      5-min Rain = 0
KPG1 150518Z 01017KT 07/02 A3016 RMK A01 T00730024  RH  071%=      5-min Rain = 0
KPG1 150519Z 02016KT 07/02 A3016 RMK A01 T00730024  RH  071%=      5-min Rain = 0
KPG1 150520Z 02015KT 07/02 A3016 RMK A01 T00740024  RH  071%=      5-min Rain = 0
KPG1 150521Z 02013KT 07/02 A3016 RMK A01 T00740024  RH  071%=      5-min Rain = 0
KPG1 150522Z 02016KT 07/02 A3016 RMK A01 T00740024  RH  071%=      5-min Rain = 0
KPG1 150523Z 01017KT 07/02 A3016 RMK A01 T00730024  RH  071%=      5-min Rain = 0
KPG1 150524Z 02016KT 07/02 A3016 RMK A01 T00730024  RH  071%=      5-min Rain = 0
KPG1 150525Z 02015KT 07/02 A3016 RMK A01 T00730024  RH  071%=      5-min Rain = 0
KPG1 150526Z 02015KT 07/02 A3016 RMK A01 T00730024  RH  071%=      5-min Rain = 0
KPG1 150527Z 02014KT 07/02 A3016 RMK A01 T00730024  RH  071%=      5-min Rain = 0
KPG1 150528Z 02016KT 07/02 A3016 RMK A01 T00730024  RH  071%=      5-min Rain = 0
KPG1 150529Z 02015KT 07/02 A3016 RMK A01 T00730024  RH  071%=      5-min Rain = 0
KPG1 150530Z 02015KT 07/02 A3016 RMK A01 T00730024  RH  071%=      5-min Rain = 0
KPG1 150531Z 02015KT 07/02 A3016 RMK A01 T00720024  RH  071%=      5-min Rain = 0
KPG1 150532Z 02017KT 07/02 A3016 RMK A01 T00720024  RH  071%=      5-min Rain = 0
KPG1 150533Z 02017KT 07/02 A3016 RMK A01 T00720024  RH  071%=      5-min Rain = 0
KPG1 150534Z 02016KT 07/02 A3016 RMK A01 T00730024  RH  071%=      5-min Rain = 0
KPG1 150535Z 02017KT 07/02 A3016 RMK A01 T00730024  RH  071%=      5-min Rain = 0
KPG1 150536Z 02015KT 07/02 A3016 RMK A01 T00730024  RH  071%=      5-min Rain = 0
KPG1 150537Z 02016KT 07/02 A3016 RMK A01 T00730024  RH  071%=      5-min Rain = 0
KPG1 150538Z 02017KT 07/02 A3016 RMK A01 T00730024  RH  071%=      5-min Rain = 0
KPG1 150539Z 02016KT 07/02 A3016 RMK A01 T00730024  RH  071%=      5-min Rain = 0
KPG1 150540Z 02015KT 07/02 A3016 RMK A01 T00730024  RH  071%=      5-min Rain = 0
KPG1 150541Z 02017KT 07/02 A3016 RMK A01 T00730024  RH  071%=      5-min Rain = 0
KPG1 150542Z 02015KT 07/02 A3016 RMK A01 T00730024  RH  071%=      5-min Rain = 0
KPG1 150543Z 02016KT 07/02 A3016 RMK A01 T00730024  RH  071%=      5-min Rain = 0
KPG1 150544Z 02015KT 07/02 A3016 RMK A01 T00730024  RH  071%=      5-min Rain = 0
KPG1 150545Z 02015KT 07/02 A3016 RMK A01 T00730024  RH  071%=      5-min Rain = 0
KPG1 150546Z 02015KT 07/02 A3016 RMK A01 T00730024  RH  071%=      5-min Rain = 0
KPG1 150547Z 02015KT 07/02 A3016 RMK A01 T00730024  RH  071%=      5-min Rain = 0
KPG1 150548Z 02016KT 07/02 A3016 RMK A01 T00730024  RH  071%=      5-min Rain = 0
KPG1 150549Z 02015KT 07/02 A3016 RMK A01 T00730024  RH  071%=      5-min Rain = 0
KPG1 150550Z 02014KT 07/02 A3016 RMK A01 T00730024  RH  071%=      5-min Rain = 0
KPG1 150551Z 02014KT 07/02 A3016 RMK A01 T00730024  RH  071%=      5-min Rain = 0
KPG1 150552Z 02014KT 07/02 A3016 RMK A01 T00720023  RH  071%=      5-min Rain = 0
KPG1 150553Z 02015KT 07/02 A3016 RMK A01 T00720024  RH  071%=      5-min Rain = 0
KPG1 150554Z 02015KT 07/02 A3016 RMK A01 T00720024  RH  071%=      5-min Rain = 0
KPG1 150555Z 02014KT 07/02 A3016 RMK A01 T00720024  RH  071%=      5-min Rain = 0
KPG1 150556Z 02014KT 07/02 A3016 RMK A01 T00720023  RH  071%=      5-min Rain = 0
KPG1 150557Z 02014KT 07/02 A3016 RMK A01 T00720023  RH  071%=      5-min Rain = 0
KPG1 150558Z 02014KT 07/02 A3016 RMK A01 T00720023  RH  071%=      5-min Rain = 0
KPG1 150559Z 02013KT 07/02 A3016 RMK A01 T00720024  RH  071%=      5-min Rain = 0

Page generated in 0.1926 seconds.